GFSFLT1_700_spd_000.txt.gz
Wind_Speed
18 19 21 29 26 23 21 17 15 15 17 19 18 17 17 15 14 11 8 6 6 10 12 15 17 19 22 19 17 15 14 13 13
24 22 22 24 24 26 23 21 17 14 14 17 22 21 22 20 18 17 14 12 11 13 13 14 16 19 22 21 19 18 16 14 15
27 28 20 23 24 22 20 19 19 19 18 17 19 23 25 25 23 23 22 20 17 16 17 17 18 19 19 21 18 17 17 15 16
23 24 18 15 20 21 17 13 17 18 21 22 23 23 26 31 31 30 30 26 23 20 22 21 21 20 17 19 17 17 17 17 17
18 22 19 16 16 18 20 20 20 21 22 24 22 27 29 29 36 36 35 32 27 25 25 23 24 19 18 18 17 17 16 17 16
18 21 20 20 20 20 21 21 22 22 23 22 23 29 33 33 35 39 37 36 32 32 26 25 23 21 17 16 17 17 16 18 15
21 25 23 17 18 19 24 23 22 19 21 21 25 29 33 38 38 37 44 42 31 27 24 25 23 20 15 14 15 15 16 17 16
24 25 25 21 15 19 23 20 18 14 17 23 23 24 27 31 36 45 44 47 28 25 25 27 24 20 15 13 15 16 18 17 18
23 21 17 22 20 23 18 17 16 15 21 21 20 23 23 24 34 45 48 43 26 24 29 28 24 19 16 15 17 21 22 21 23
24 18 19 23 22 21 18 19 21 24 26 28 29 27 26 29 29 33 45 38 26 27 34 28 25 21 17 16 21 23 26 26 26
23 23 23 24 23 16 17 19 18 18 19 23 27 30 31 31 34 32 39 37 32 28 27 27 23 22 20 20 23 27 27 26 26
34 29 30 24 20 19 16 14 13 10 8 13 17 21 24 28 30 30 35 33 16 22 28 25 22 22 25 25 28 29 28 31 27
38 39 33 29 23 18 15 10 8 4 11 15 17 19 24 24 28 28 27 22 20 26 29 28 28 30 32 31 31 25 33 30 28
23 31 30 24 22 16 9 6 6 10 12 28 33 29 24 26 30 26 25 23 26 28 32 28 30 32 31 37 42 22 26 29 32
30 28 24 23 15 9 11 13 19 27 31 37 29 27 26 26 28 26 26 24 28 27 26 29 37 29 40 47 39 19 23 30 30
25 23 24 21 18 16 27 30 28 33 31 29 30 30 28 27 22 21 23 26 27 32 31 32 34 27 29 22 25 22 26 27 28
22 21 19 23 35 34 30 31 33 35 35 31 29 29 24 25 18 24 26 28 32 33 29 34 32 20 26 25 19 22 26 28 28
22 26 27 28 33 37 39 35 33 35 31 22 23 23 23 21 20 28 25 28 33 33 26 27 18 19 25 23 21 24 27 29 29
22 26 25 19 21 22 27 32 28 22 19 18 17 17 9 11 12 18 16 22 26 22 23 17 19 19 22 22 24 28 30 31 30
20 19 21 24 27 26 23 18 14 10 8 8 7 9 3 2 6 9 12 17 16 16 17 19 20 23 24 25 27 31 32 31 26

GFSFLT1_700_spd_003.txt.gz
Wind_Speed
19 29 34 30 29 29 28 24 21 21 21 23 22 20 19 20 19 16 13 10 7 7 8 9 12 14 17 17 19 18 16 13 12
15 18 22 29 33 32 28 25 22 18 20 21 25 22 24 23 23 21 18 15 12 12 13 15 16 17 17 18 18 19 16 15 14
17 23 23 25 27 34 33 26 23 21 18 19 20 26 27 26 26 25 24 22 21 17 17 17 18 19 18 19 19 18 17 16 15
22 22 23 27 23 24 24 24 25 22 23 22 22 21 23 27 30 31 29 26 26 27 20 27 20 22 21 20 19 19 16 15 15
20 22 23 29 22 21 25 25 25 27 25 25 22 22 24 25 28 37 29 36 26 32 29 20 24 25 24 23 23 19 15 14 14
19 15 22 26 23 24 26 27 28 28 29 27 22 24 24 27 30 34 40 38 42 39 30 24 23 26 27 26 25 21 16 15 14
19 21 22 29 22 21 24 26 27 27 27 23 21 21 22 26 29 32 40 43 44 48 43 38 29 29 27 29 28 22 17 16 17
19 25 23 28 17 16 23 26 27 24 24 20 18 19 19 20 30 38 41 45 50 57 53 40 36 38 29 30 27 22 19 19 20
25 23 21 27 21 17 22 24 26 25 23 22 21 20 19 22 26 28 32 41 49 46 47 26 27 37 31 27 25 23 23 22 24
28 24 25 26 23 22 25 22 24 23 24 28 28 28 29 30 31 29 27 30 31 37 33 33 20 34 28 30 25 24 28 27 28
25 25 28 29 23 28 23 25 25 28 30 30 30 29 29 30 32 32 31 32 31 29 25 32 20 30 27 26 28 28 32 32 31
26 24 30 31 27 27 27 26 27 26 25 21 15 11 12 16 21 24 24 28 28 23 20 21 21 30 32 33 32 35 39 30 36
26 27 29 34 25 29 29 29 28 25 20 15 10 9 17 24 24 22 25 28 29 24 22 22 29 35 32 30 33 37 35 39 40
16 24 30 33 28 32 30 27 22 24 20 15 18 25 26 26 26 27 27 27 27 21 22 23 29 31 31 36 36 38 39 41 41
13 13 24 26 29 30 26 23 24 22 16 23 27 34 39 30 26 23 23 24 19 16 17 23 27 29 33 37 35 27 35 43 45
28 32 30 29 21 18 15 11 16 21 28 32 38 35 33 33 27 22 18 10 13 16 20 23 29 33 31 30 30 33 32 28 29
26 26 27 24 17 16 20 26 31 33 32 40 34 28 25 20 20 19 18 14 8 9 15 25 32 24 19 28 35 31 25 27 26
21 19 18 21 22 25 30 33 31 29 30 25 28 19 16 16 16 13 17 12 8 9 11 14 22 22 22 25 25 23 24 24 24
19 20 22 25 29 25 24 26 23 25 25 19 15 9 7 6 8 10 11 9 11 11 13 19 23 26 28 25 20 21 23 24 25
26 25 22 22 21 20 21 20 20 17 15 13 11 11 11 11 12 14 13 13 14 15 15 14 15 19 20 20 22 22 24 27 29

GFSFLT1_700_spd_006.txt.gz
Wind_Speed
19 15 20 29 29 27 28 27 27 26 23 22 20 20 21 21 20 20 19 17 14 10 8 8 8 7 9 12 14 16 18 15 14
14 13 19 26 31 31 31 30 27 24 24 23 22 22 21 21 22 22 23 21 17 14 13 12 10 12 14 15 15 16 18 17 15
14 15 22 20 25 30 33 32 29 27 25 25 26 27 25 24 23 26 27 24 22 19 18 17 14 12 18 22 21 18 20 19 17
14 17 19 22 23 25 34 33 30 26 26 24 26 28 25 28 28 29 30 30 24 25 23 24 18 18 25 28 25 21 21 21 18
18 19 19 20 23 30 28 33 36 31 27 29 26 21 21 23 26 31 33 35 31 33 30 32 24 23 25 22 25 27 23 23 21
18 24 24 23 26 33 27 30 32 30 31 29 26 24 25 24 25 26 31 38 41 39 38 40 46 36 37 42 32 31 25 24 24
18 21 20 20 28 32 30 31 30 31 31 31 27 28 26 26 26 30 31 34 38 44 51 54 56 48 50 39 35 29 25 26 25
26 24 23 22 32 32 28 26 30 32 32 31 27 28 26 25 29 29 31 34 35 42 51 54 56 53 39 40 38 36 29 27 27
30 29 27 23 35 30 23 21 23 26 26 27 27 29 29 28 27 25 27 28 33 39 41 41 40 31 34 37 37 37 32 29 29
30 27 25 25 32 28 25 23 25 28 29 30 31 31 30 27 27 27 29 30 30 30 30 33 33 31 34 32 30 34 30 30 31
35 30 30 28 31 33 27 29 30 31 35 34 33 33 31 29 29 24 24 24 23 24 28 30 27 26 29 29 29 34 33 36 34
31 32 31 31 32 32 34 33 32 32 33 33 34 34 33 28 19 13 13 17 21 20 26 30 27 28 26 26 31 34 31 33 33
29 35 32 28 31 37 35 31 33 32 34 34 36 35 32 24 16 15 18 23 25 25 26 27 23 23 26 27 29 33 28 29 31
32 35 34 32 30 32 34 33 33 34 34 33 32 30 27 23 22 26 31 33 38 24 23 21 19 21 25 28 30 31 28 35 34
34 37 31 33 34 29 31 34 32 32 31 28 25 23 21 25 29 30 31 29 30 25 17 15 17 19 23 24 27 31 32 31 34
30 30 29 28 28 31 34 34 33 30 26 22 22 25 31 32 30 24 23 24 23 22 16 16 19 21 24 25 27 32 30 34 36
33 33 33 33 33 33 33 33 33 29 23 24 28 31 29 25 23 20 20 21 20 17 15 18 18 19 26 26 27 31 28 30 32
34 33 29 25 25 25 25 28 26 25 27 30 30 28 27 24 24 20 19 20 20 19 19 16 16 16 20 25 21 22 21 24 25
22 24 21 17 19 21 23 24 26 29 29 25 26 25 22 23 22 18 18 17 16 17 19 19 17 15 18 19 19 16 15 18 22
23 17 16 16 19 22 24 23 23 22 21 21 22 21 20 18 16 15 16 17 18 20 20 18 18 16 13 13 16 19 20 21 23

GFSFLT1_700_spd_009.txt.gz
Wind_Speed
16 23 27 31 24 23 23 23 25 26 25 25 24 22 20 20 20 19 19 18 19 18 16 14 11 8 8 10 12 15 19 21 16
21 22 26 30 24 26 25 24 23 21 24 26 25 23 22 21 22 20 20 22 21 19 18 16 13 11 13 16 17 17 18 22 22
20 20 25 30 32 29 26 24 25 24 24 25 27 25 25 24 21 21 23 23 22 22 19 18 24 19 22 27 25 33 32 24 26
23 19 23 28 33 28 24 24 27 26 29 28 29 28 28 27 24 22 23 25 26 25 27 25 29 26 29 29 29 27 40 29 23
18 21 23 24 29 32 29 25 26 30 31 30 27 28 28 27 28 29 27 28 30 31 33 35 32 32 36 36 37 43 41 29 27
24 15 16 19 23 32 34 32 27 28 31 30 28 28 25 25 26 26 28 28 32 33 37 40 40 43 40 46 46 48 49 45 32
18 16 20 18 23 25 36 36 28 28 28 32 29 28 29 26 25 26 28 30 30 33 35 39 41 44 46 49 49 51 53 51 33
22 21 25 22 18 21 24 36 29 26 29 32 33 31 30 28 27 29 31 31 29 31 34 35 38 42 41 43 48 50 50 47 36
24 24 23 30 28 23 26 31 30 28 30 34 35 35 31 29 30 31 30 30 30 31 32 35 36 39 38 39 36 39 36 43 35
36 32 28 31 30 29 27 35 33 33 35 35 33 33 30 31 31 30 31 31 31 30 30 28 26 27 30 35 38 36 35 34 31
36 39 33 31 31 31 28 36 33 31 31 32 32 32 32 32 34 33 29 28 27 25 18 16 19 25 32 34 31 37 35 30 32
32 30 30 32 34 30 29 37 33 33 31 30 34 36 35 34 33 29 26 21 16 13 15 20 27 30 38 30 29 32 29 28 31
37 39 29 32 32 32 33 41 34 35 34 32 33 35 35 31 28 25 24 19 14 18 21 24 30 30 31 27 28 28 26 25 30
38 34 35 35 34 34 31 44 39 36 35 34 35 35 35 32 28 24 21 22 23 24 24 27 26 27 25 23 26 27 26 26 27
34 39 39 36 35 33 30 38 36 33 35 36 36 35 31 30 25 23 25 26 28 28 28 26 24 22 19 22 22 25 26 26 26
37 36 36 33 35 37 32 32 33 35 36 35 33 32 29 28 24 25 26 27 29 28 25 23 21 21 22 23 23 26 23 26 22
24 26 32 34 34 36 37 39 37 34 31 30 28 26 25 23 24 26 28 27 25 22 22 22 21 23 25 23 24 24 24 24 24
27 30 31 32 35 36 36 34 31 30 27 25 24 23 22 22 21 22 22 21 19 20 21 21 24 24 22 22 23 23 23 25 21
24 31 36 36 34 31 28 24 22 20 19 19 20 19 19 20 19 19 18 18 18 19 19 19 20 22 21 19 16 17 15 12 12
29 26 21 20 16 15 17 18 19 22 23 20 17 16 18 17 18 18 15 15 16 19 19 20 21 19 18 16 13 12 14 15 16

GFSFLT1_700_spd_012.txt.gz
Wind_Speed
33 29 32 34 31 27 23 20 20 19 14 18 22 22 20 21 20 19 16 14 14 14 14 15 10 11 9 11 11 15 16 23 35
24 33 31 31 33 29 28 25 23 16 15 14 20 22 21 21 19 19 17 16 17 15 18 19 12 13 15 16 16 15 14 24 30
22 19 30 26 27 28 32 30 24 21 19 17 21 24 24 22 20 18 17 17 18 18 19 24 18 16 19 19 22 21 27 27 30
29 22 22 25 24 28 31 30 25 23 22 23 25 27 27 25 23 20 17 16 19 20 24 22 27 24 20 25 26 26 28 34 36
27 27 28 30 28 32 33 27 28 25 26 25 26 25 28 26 24 24 22 21 19 20 23 28 30 30 29 32 33 34 34 36 40
28 29 14 30 28 33 33 25 28 28 25 27 27 27 24 24 27 28 26 24 24 25 27 30 31 33 34 36 38 41 41 43 41
30 28 19 24 22 28 33 27 23 31 26 28 28 27 25 25 25 24 24 23 25 27 27 29 32 32 35 37 38 40 42 44 42
29 23 22 23 23 25 31 33 25 31 31 27 30 27 28 26 25 24 23 25 25 25 28 29 31 32 32 32 34 35 38 43 45
29 31 24 20 23 24 29 35 27 27 30 29 30 29 27 25 25 24 25 25 26 27 28 29 30 31 30 30 31 34 38 42 45
30 34 32 23 20 23 30 27 26 25 31 35 31 32 29 26 26 26 28 28 29 31 30 31 29 28 25 26 24 31 35 41 40
40 36 35 37 31 27 29 28 30 28 36 38 33 34 33 28 28 31 30 29 29 30 29 27 26 24 25 24 25 31 32 34 35
40 32 32 37 35 37 34 35 28 29 37 34 35 33 34 30 34 37 32 28 29 27 28 24 20 22 25 28 29 31 30 29 30
43 46 34 23 29 36 39 37 35 30 39 34 33 34 33 39 40 35 33 29 27 26 23 20 18 21 25 30 27 27 24 25 27
36 40 44 35 21 36 36 35 32 30 40 36 34 37 37 37 37 36 31 30 28 23 19 19 22 26 28 28 27 22 22 24 25
19 27 38 40 34 31 34 29 33 36 43 38 38 39 36 38 36 34 33 27 23 20 20 23 27 27 26 25 23 21 23 23 24
40 25 26 31 34 36 37 36 36 41 42 39 39 38 39 37 34 31 25 24 18 20 25 27 25 25 24 22 22 22 23 22 23
32 37 29 31 33 39 41 43 41 40 39 39 41 39 34 30 28 26 22 19 20 19 21 22 23 24 22 22 22 22 21 22 22
21 27 32 29 33 35 38 44 43 38 37 38 35 32 30 26 21 17 16 17 18 20 21 20 22 20 19 20 17 17 20 21 20
25 24 25 29 32 30 33 34 33 34 32 28 27 23 20 15 13 13 15 17 18 19 18 18 18 16 15 16 17 19 17 16 13
27 25 24 22 22 22 24 26 23 22 20 20 19 15 14 14 13 14 15 16 16 15 16 15 16 16 16 15 18 16 14 15 15

GFSFLT1_700_spd_015.txt.gz
Wind_Speed
43 18 43 38 27 18 16 19 18 12 10 17 22 22 21 19 15 15 13 13 12 11 12 11 9 10 10 9 7 6 8 14 20
39 26 47 47 41 25 20 21 20 17 13 13 17 20 19 19 17 16 13 16 15 13 13 11 11 12 13 13 12 13 15 20 21
42 18 43 47 48 20 17 16 17 19 17 16 15 18 19 21 18 18 16 19 18 15 14 14 11 13 16 16 15 17 19 23 25
33 22 28 47 47 29 17 16 19 19 21 19 21 20 19 23 22 22 21 19 18 15 13 16 13 15 16 19 20 22 23 25 29
28 24 26 43 46 33 22 18 20 20 22 23 22 23 22 23 26 25 23 20 16 16 16 16 18 18 20 21 24 27 28 29 31
26 32 28 33 37 36 26 18 21 22 24 25 23 25 23 25 28 28 25 20 18 19 17 20 20 21 22 22 26 29 30 33 34
27 26 31 31 36 38 26 26 23 16 21 25 24 25 25 25 26 25 25 23 22 22 20 22 24 25 27 27 28 31 31 33 34
29 33 26 26 30 36 31 28 22 20 21 20 26 25 25 25 22 24 24 24 25 25 26 24 25 27 29 29 30 32 32 31 33
33 30 27 34 30 35 34 29 23 23 19 21 21 28 26 25 25 26 26 26 25 24 26 27 27 28 30 30 32 29 26 29 32
29 25 28 26 31 31 31 30 27 22 18 17 21 28 28 27 28 28 27 27 27 25 24 26 29 30 31 30 29 25 25 27 32
25 29 25 36 36 27 28 28 26 22 23 24 21 31 30 30 31 31 29 29 29 28 28 28 29 29 27 27 23 21 24 29 35
32 36 31 32 29 37 33 32 26 25 25 25 26 31 33 31 31 32 32 32 31 28 29 28 27 26 25 20 21 22 26 33 36
27 28 26 35 37 33 47 39 38 34 33 29 28 30 36 33 31 32 32 33 31 29 26 24 29 24 20 21 23 27 31 31 29
29 30 31 29 33 41 27 36 35 36 33 30 29 31 37 36 36 34 36 37 32 27 29 29 24 21 20 22 27 30 29 27 26
31 31 29 33 35 42 43 32 35 38 37 32 32 34 36 37 39 40 41 36 29 30 30 23 20 19 23 26 27 28 26 25 22
34 33 29 28 33 38 44 34 32 32 29 20 33 38 40 41 42 40 38 37 33 31 23 19 20 25 25 28 27 24 23 22 22
24 31 34 29 24 34 39 43 36 35 31 28 30 40 42 46 41 38 36 35 29 22 20 20 22 24 26 25 23 21 20 22 20
21 26 36 35 37 27 29 32 35 33 33 30 34 37 40 40 36 33 29 27 22 20 19 20 22 23 23 19 18 19 18 17 19
24 28 32 37 36 37 32 24 23 26 33 32 31 30 29 28 27 26 23 21 18 18 19 20 21 19 18 17 16 16 16 17 17
26 33 15 36 31 31 28 25 24 26 26 24 22 24 24 22 20 18 17 16 17 19 18 17 17 16 17 16 15 15 15 14 13

GFSFLT1_700_spd_018.txt.gz
Wind_Speed
37 34 26 29 25 26 25 22 19 17 18 20 26 29 26 23 19 16 15 16 14 14 15 17 16 14 10 8 8 8 7 10 15
40 38 32 27 32 33 33 30 24 21 18 18 19 25 26 25 20 19 19 18 16 17 18 18 17 15 13 12 10 11 10 13 17
42 43 37 24 24 30 36 38 29 22 20 20 17 19 20 23 20 20 22 21 19 20 19 19 16 15 15 14 12 13 13 15 19
45 49 43 36 30 32 22 29 36 27 24 22 24 23 19 19 21 24 24 21 19 21 22 20 16 14 16 17 18 17 17 18 21
43 46 44 40 34 35 33 25 27 27 26 25 26 24 23 20 22 25 27 23 18 21 21 19 15 14 13 15 18 20 20 21 24
45 50 47 41 35 36 35 30 27 27 23 23 24 27 28 26 25 27 28 25 23 20 19 17 15 15 14 15 18 21 22 23 26
36 42 39 46 39 41 37 36 27 24 24 22 19 27 31 29 28 26 29 27 25 23 22 20 19 18 18 20 22 22 24 25 28
26 37 38 38 22 49 42 41 33 22 20 23 23 25 29 27 28 26 29 30 28 26 26 25 24 25 25 24 24 23 24 25 28
36 35 33 32 30 34 41 42 40 28 23 25 22 20 28 27 29 31 31 31 29 29 28 29 28 28 29 28 27 25 25 26 26
26 41 32 37 36 27 28 39 41 34 29 26 24 22 25 30 30 33 33 33 32 32 30 29 28 29 29 28 28 26 27 25 24
23 31 33 37 38 39 38 33 37 34 29 31 28 25 28 29 31 33 35 36 35 34 32 31 31 31 28 25 26 27 24 21 26
42 28 34 39 33 33 30 33 36 34 32 29 27 25 27 34 33 35 36 38 38 36 35 34 31 29 25 22 23 25 21 23 28
32 38 36 32 30 38 35 33 33 36 37 35 34 32 27 30 36 32 37 38 38 37 37 33 30 24 25 23 24 24 23 26 33
29 29 34 41 40 41 45 47 39 42 40 39 34 30 29 29 33 34 32 38 39 39 36 29 27 25 24 28 26 27 27 30 32
27 26 30 30 31 38 43 48 46 46 52 43 38 38 31 31 31 34 37 36 39 35 32 31 28 25 31 30 26 26 29 29 24
30 33 27 29 35 37 40 40 53 54 45 43 42 40 37 34 31 36 42 41 37 34 31 29 26 29 25 22 26 29 26 22 20
29 31 33 32 25 30 38 42 46 52 44 40 42 39 34 34 37 39 45 42 39 35 32 27 30 26 23 25 28 27 23 21 20
24 26 26 27 35 37 30 35 52 56 51 46 43 39 31 31 32 37 43 43 39 35 29 23 24 23 24 27 26 23 20 19 17
16 20 25 31 37 38 42 39 44 53 52 46 46 42 43 40 36 38 39 32 28 27 27 22 24 25 27 26 22 18 17 16 17
27 29 32 35 39 43 49 47 30 45 35 32 36 35 35 32 28 31 29 27 19 27 23 23 23 23 23 22 21 19 18 17 16

GFSFLT1_700_spd_021.txt.gz
Wind_Speed
32 33 29 26 26 23 20 18 19 21 25 25 24 23 26 25 24 21 22 21 18 17 16 20 22 22 19 15 12 10 9 8 9
35 37 36 28 31 30 25 25 25 21 21 23 23 22 21 27 26 24 23 21 20 18 20 24 25 23 20 17 15 12 11 12 12
39 34 36 34 32 32 28 31 29 25 21 22 20 20 21 23 28 26 24 25 22 20 23 27 27 24 20 17 14 14 13 12 13
27 32 36 36 36 27 27 30 34 30 28 23 23 24 22 22 26 28 27 26 22 22 25 28 28 24 20 17 15 16 16 16 16
29 31 30 45 37 30 26 29 32 33 31 30 26 24 24 25 24 27 29 28 23 25 28 30 27 25 23 20 18 18 18 18 20
29 28 25 34 48 41 30 26 32 28 29 29 30 28 28 29 28 26 29 29 25 26 30 31 29 26 24 22 21 20 20 20 21
22 20 19 27 43 46 35 28 33 30 29 29 31 31 32 34 32 28 26 30 29 26 30 31 29 27 23 22 21 21 21 21 21
26 23 18 26 29 39 39 39 34 38 32 31 32 32 36 37 34 31 29 33 33 31 30 29 29 28 26 24 23 21 21 21 22
31 24 27 22 30 43 40 36 34 42 42 35 34 35 35 35 36 35 34 32 36 36 32 31 30 30 28 26 25 23 22 23 25
40 30 25 29 34 42 43 41 40 37 45 39 36 34 37 34 34 36 37 37 35 39 38 35 35 33 31 29 27 25 22 24 26
28 32 28 33 37 37 36 32 35 32 39 42 38 38 36 33 32 35 39 41 38 39 41 39 37 35 32 30 27 24 24 24 24
28 30 29 23 31 44 40 40 32 28 35 46 42 42 36 35 31 33 37 41 42 40 42 41 39 36 34 31 26 25 24 23 25
28 24 32 33 25 32 37 43 38 36 38 42 45 39 38 35 34 35 38 38 43 42 43 42 40 38 36 31 30 27 22 27 29
31 27 28 29 31 27 30 31 33 34 38 44 43 34 35 35 37 35 37 39 39 46 44 44 43 40 36 34 31 24 18 30 31
31 30 29 28 28 27 31 33 34 33 38 35 37 38 40 40 36 37 38 39 40 38 46 46 46 42 35 34 29 18 23 37 32
23 25 26 25 26 26 27 30 31 35 36 40 47 45 47 45 39 45 40 39 42 43 40 45 46 44 40 35 28 23 25 33 33
20 19 20 23 27 30 31 32 35 37 38 40 44 46 49 52 50 47 51 43 45 47 48 43 43 43 40 31 26 21 24 34 33
14 16 17 19 20 23 28 32 38 44 44 48 51 49 54 57 53 56 53 51 50 50 48 45 44 40 37 27 23 23 34 33 27
7 11 12 14 18 21 26 29 33 37 41 49 51 54 60 59 60 58 54 58 50 42 43 44 40 40 25 18 22 29 30 24 20
12 12 17 24 25 29 30 32 35 39 46 50 55 60 65 62 59 58 57 46 47 49 45 33 16 28 19 21 21 27 23 20 18

GFSFLT1_700_spd_024.txt.gz
Wind_Speed
23 29 29 23 22 23 22 20 22 23 25 32 32 30 27 25 23 21 19 19 17 17 16 18 25 26 24 21 18 15 12 8 5
24 22 27 28 27 26 25 23 23 22 21 20 24 27 28 28 25 24 22 20 19 18 19 23 29 30 27 24 20 17 14 12 11
26 21 24 25 28 30 28 28 26 24 21 21 18 18 22 23 21 22 24 23 23 20 21 26 31 33 29 26 22 19 18 15 13
26 22 24 25 28 29 29 31 33 30 26 24 23 22 22 22 23 21 25 27 25 22 23 29 33 33 31 28 23 21 19 17 15
34 29 24 20 20 23 33 35 36 32 31 29 26 23 22 24 22 24 25 27 28 25 27 30 35 35 32 28 24 21 20 18 16
34 32 28 27 30 26 30 35 35 32 32 33 29 29 25 25 26 28 27 25 29 28 30 32 36 37 34 30 25 22 21 21 19
38 37 32 30 30 26 23 32 32 27 25 23 26 33 31 31 30 31 28 24 28 30 30 33 36 37 35 31 27 25 25 22 20
28 32 33 27 26 21 22 31 36 30 29 26 25 29 34 35 34 32 30 29 28 32 32 32 37 39 37 33 30 26 24 22 23
31 23 24 26 22 25 25 31 35 31 29 30 31 30 31 34 34 34 34 34 30 35 36 33 37 40 38 35 32 28 25 25 25
35 33 32 33 24 21 25 29 33 33 28 28 31 34 32 32 34 34 37 38 35 36 38 39 36 38 39 36 34 31 27 27 27
30 24 26 34 26 26 28 28 27 29 29 29 35 40 35 37 35 36 39 42 41 39 40 42 41 39 39 38 36 33 30 29 30
30 28 23 22 28 30 32 33 35 30 34 34 33 40 42 41 38 36 37 43 42 41 43 43 44 44 42 40 37 35 33 31 33
30 26 24 23 25 24 24 31 32 36 37 35 37 36 35 40 40 38 40 39 41 43 44 46 45 45 45 43 42 39 36 37 34
32 27 27 25 24 21 25 22 30 35 38 37 32 28 33 36 45 42 37 35 40 42 42 46 49 46 46 47 47 43 42 39 35
23 28 26 24 25 24 25 25 23 25 32 35 40 47 39 41 40 45 43 42 39 42 41 42 46 51 50 50 49 47 45 39 34
23 24 27 28 28 24 25 25 26 27 28 30 32 31 32 33 38 36 41 42 39 37 40 47 46 45 53 53 53 53 48 42 36
28 24 20 21 22 23 25 25 26 26 28 30 33 34 36 37 36 39 52 51 48 44 40 44 54 51 50 53 56 52 47 42 33
24 24 25 25 25 25 27 30 31 31 32 32 35 35 37 40 43 44 47 47 53 44 48 45 49 45 49 50 48 52 48 38 24
21 21 23 24 26 25 24 26 28 33 38 40 41 43 45 46 49 51 51 50 47 47 50 55 57 51 50 51 32 22 40 36 20
20 19 18 17 16 17 18 21 27 32 35 37 44 51 52 54 56 58 56 53 53 54 57 58 57 57 58 53 67 34 25 17 24

GFSFLT1_700_spd_027.txt.gz
Wind_Speed
24 22 20 23 26 26 25 25 25 25 36 35 34 32 30 27 24 21 19 19 17 15 15 14 20 27 27 26 24 21 18 13 9
27 20 16 18 18 25 28 27 29 30 26 26 35 33 31 29 26 25 22 21 20 17 16 19 24 29 28 28 27 23 19 16 13
28 23 18 17 16 18 24 29 28 27 29 29 24 26 31 32 30 27 25 24 23 20 17 20 26 33 33 31 28 25 21 18 15
31 27 21 13 13 16 23 26 29 27 27 27 28 28 24 20 21 21 22 24 24 24 21 22 26 35 36 34 31 27 24 21 18
40 38 27 18 17 16 23 27 31 32 31 29 26 25 26 23 22 22 24 24 23 25 24 24 27 33 40 37 33 31 27 23 20
25 35 34 29 25 22 18 21 30 33 34 35 31 29 27 28 28 27 27 26 24 25 27 28 30 34 40 39 36 34 29 25 23
21 22 23 25 25 22 23 23 25 30 36 34 33 33 32 31 31 30 28 25 25 25 27 29 32 34 39 40 38 36 32 28 25
17 23 27 30 29 24 22 24 24 27 30 36 36 39 36 35 32 31 32 30 28 27 28 29 33 36 39 43 42 39 35 31 27
25 16 16 20 26 23 24 19 23 31 31 32 33 31 29 28 35 36 35 34 32 30 30 29 34 37 39 45 45 41 38 35 31
27 31 27 24 23 27 24 20 25 32 35 36 33 29 25 27 30 32 33 33 36 34 33 32 35 38 38 43 45 43 41 37 35
27 23 20 18 18 25 28 23 24 28 38 40 37 36 32 27 25 28 30 33 34 34 35 36 37 39 39 39 46 46 44 41 39
21 17 22 23 21 20 30 27 24 28 30 38 40 34 34 35 33 33 34 33 34 36 39 37 40 41 43 41 43 48 47 45 44
21 20 25 27 24 23 23 32 30 31 32 35 33 30 28 30 30 33 37 38 36 35 38 41 39 42 45 45 44 45 46 47 47
23 21 24 29 27 28 25 29 31 34 34 37 36 39 38 36 35 34 35 40 41 40 37 39 40 40 43 48 50 50 49 50 51
27 23 21 29 27 28 26 22 27 26 31 36 40 40 39 39 38 35 37 38 32 51 48 41 41 40 40 43 50 50 52 53 51
29 26 21 28 29 28 26 24 27 29 28 24 29 37 42 42 44 40 41 40 41 37 39 43 35 42 45 45 44 47 51 52 50
31 28 27 22 29 32 30 30 24 30 30 31 31 30 31 32 34 40 41 44 41 37 34 42 44 51 52 43 39 44 48 51 57
39 35 33 26 24 25 26 28 28 28 27 27 27 28 30 32 34 37 41 45 44 37 44 45 45 52 50 45 49 52 49 50 57
35 36 35 32 28 27 27 27 28 29 30 30 32 33 35 38 40 43 45 47 48 48 45 44 48 49 53 63 53 56 57 54 52
31 30 29 29 29 30 31 30 31 31 32 33 36 37 39 42 45 50 55 56 56 56 59 55 51 49 51 48 53 54 55 50 50

GFSFLT1_700_spd_030.txt.gz
Wind_Speed
23 23 23 22 23 29 26 25 25 25 30 31 31 30 26 26 24 23 22 21 19 18 17 17 17 20 26 26 26 24 20 16 12
25 25 26 20 19 23 27 26 26 26 23 27 30 31 28 26 26 26 25 24 21 20 18 19 20 22 27 29 28 28 24 21 16
24 26 26 19 16 19 20 24 28 27 25 24 21 29 31 29 29 27 27 26 26 23 20 20 22 24 30 31 32 30 26 24 20
27 23 27 20 14 17 18 23 28 29 31 30 30 26 23 30 33 31 30 30 27 26 24 22 23 25 32 34 33 33 30 27 24
23 25 26 25 19 19 15 21 26 28 31 29 29 29 28 23 22 29 34 34 30 28 28 25 24 26 32 37 36 34 32 30 28
25 30 33 34 28 25 16 20 25 29 31 31 31 30 30 31 29 27 25 24 24 24 26 27 28 28 31 37 40 39 35 32 31
11 14 22 31 35 33 24 19 18 26 32 34 35 34 34 33 30 29 27 25 26 26 26 26 28 31 31 33 41 42 39 36 34
14 16 14 16 19 31 28 23 20 21 25 38 39 41 39 38 33 33 33 33 31 31 31 30 26 29 33 34 37 42 42 39 37
20 22 15 12 20 27 26 22 22 21 22 29 43 43 37 38 37 37 36 36 36 36 35 32 30 27 30 35 37 37 41 42 40
25 30 23 19 18 20 26 26 27 26 24 21 35 45 41 40 42 41 40 39 38 39 37 35 32 32 29 31 34 36 40 42 43
20 22 27 26 22 22 24 29 30 28 28 27 34 40 40 38 38 36 33 35 37 39 42 39 36 34 35 33 32 35 37 45 46
24 16 21 27 25 24 25 27 31 32 30 31 31 40 40 38 36 34 33 33 35 35 41 43 42 42 38 38 36 36 37 42 48
19 17 19 18 25 28 26 27 30 32 32 33 33 38 41 40 40 39 35 33 31 30 36 43 46 47 43 39 40 42 43 42 48
26 21 24 21 20 28 26 27 30 31 34 31 30 31 41 44 40 38 36 33 33 32 30 32 36 46 49 47 44 41 45 46 46
29 28 28 25 21 28 31 27 30 30 32 29 30 34 33 38 39 37 37 37 38 38 40 39 36 39 43 50 48 46 41 46 51
27 30 32 30 22 24 31 27 30 26 28 26 27 31 36 39 42 41 41 40 40 43 44 42 40 41 45 52 52 48 45 42 48
30 30 30 29 23 22 29 29 27 28 27 28 28 28 30 34 38 40 42 44 44 44 45 43 42 38 36 43 50 53 49 47 54
25 31 29 25 22 23 28 32 31 29 29 25 31 32 32 30 30 31 33 34 36 39 37 39 37 36 36 41 48 57 53 53 58
30 29 31 29 26 26 25 29 33 34 34 31 29 28 29 30 31 33 35 37 39 41 41 43 43 42 40 41 42 52 49 48 55
32 28 27 30 31 29 30 31 31 30 31 33 32 33 33 34 35 37 39 42 45 49 50 52 53 52 48 49 51 51 51 55 58

GFSFLT1_700_spd_033.txt.gz
Wind_Speed
29 27 27 32 33 33 27 22 23 26 30 32 32 30 28 26 27 26 23 22 20 19 18 16 17 14 17 20 25 23 19 17 13
30 29 27 31 33 34 26 27 24 22 25 28 30 28 27 26 25 28 27 23 21 20 19 18 18 17 18 22 27 27 23 21 17
34 30 27 29 32 32 25 26 22 23 24 21 25 27 27 26 24 26 27 24 24 24 22 19 20 18 20 23 27 28 27 26 22
29 28 29 29 31 30 26 28 31 25 22 21 23 22 23 25 26 26 28 27 26 26 23 23 23 21 22 22 27 29 29 28 26
32 29 28 29 29 28 30 31 30 29 27 26 24 24 21 22 25 29 29 29 28 28 28 26 24 25 23 25 27 31 31 30 29
25 27 25 28 27 28 28 27 25 29 31 29 29 30 27 24 24 24 27 31 33 32 31 31 29 29 27 26 26 29 33 32 33
22 24 25 27 27 27 27 28 23 27 31 33 35 34 33 31 28 24 22 22 23 28 30 30 28 29 29 28 28 28 30 33 33
14 12 19 30 30 28 30 31 27 20 24 30 33 36 36 34 29 29 29 27 24 24 25 25 25 25 26 28 30 31 30 32 36
13 13 14 14 12 23 31 34 28 25 21 22 24 32 38 37 34 33 31 30 30 29 29 28 29 28 28 27 29 31 31 31 35
13 14 13 14 14 17 24 28 30 26 24 21 23 22 34 42 41 39 36 34 33 33 33 35 34 34 34 32 30 28 30 33 33
16 20 22 20 16 17 20 20 23 29 31 28 25 23 25 35 43 42 45 40 39 38 39 40 41 41 41 38 33 32 30 33 35
22 19 18 20 21 22 23 22 23 26 37 34 30 27 25 29 38 45 44 43 43 42 43 44 43 43 42 40 36 34 34 33 37
18 18 17 17 20 22 25 30 31 34 37 37 35 30 28 28 36 41 44 45 45 42 38 38 43 45 46 41 37 37 35 36 39
26 27 28 27 27 29 29 30 34 33 32 35 32 34 32 32 32 40 41 41 39 39 40 41 43 42 43 43 43 43 42 40 43
30 30 28 28 27 28 26 26 33 30 31 30 33 34 33 32 32 35 44 44 44 44 43 42 42 39 37 36 36 37 39 45 47
24 24 29 32 30 32 27 27 34 33 26 30 29 29 30 29 30 29 38 46 44 43 43 41 41 42 40 41 40 39 37 40 46
27 24 23 30 35 33 32 27 30 33 29 28 27 29 27 28 30 32 33 36 39 41 42 42 39 42 43 41 40 41 39 40 46
18 19 22 24 30 32 33 28 28 35 30 29 30 28 28 28 27 28 30 32 33 35 35 33 34 33 32 32 34 35 39 46 51
24 19 19 22 26 28 30 28 24 31 32 30 29 29 26 28 30 32 31 31 30 31 30 30 30 31 34 36 39 40 40 41 47
36 34 27 24 24 27 30 27 23 26 33 33 33 33 33 31 29 30 29 30 32 33 34 36 37 39 40 43 47 48 47 48 49

GFSFLT1_700_spd_036.txt.gz
Wind_Speed
33 34 32 35 36 37 29 27 20 24 25 27 29 29 28 26 25 26 24 21 18 17 15 12 12 12 11 14 16 18 17 15 13
34 34 34 35 35 38 27 29 21 18 22 26 29 29 28 27 23 25 25 22 21 19 17 15 15 12 12 13 16 19 21 19 17
34 35 37 32 35 37 27 19 22 19 18 22 25 26 25 23 22 22 24 25 24 22 18 16 17 14 13 15 15 18 23 24 22
32 35 37 34 33 35 22 20 26 22 21 20 22 25 26 27 27 26 24 25 26 24 21 18 20 20 15 15 17 18 22 25 26
29 35 36 34 33 33 33 26 24 25 24 23 21 21 22 26 26 26 28 26 24 23 23 21 19 22 20 18 18 19 22 23 26
38 30 34 34 31 31 36 30 25 23 27 24 24 25 23 23 23 27 27 26 25 24 23 22 22 22 24 20 21 21 22 25 27
26 38 31 33 30 31 33 34 29 27 25 29 29 28 26 24 23 23 24 25 26 27 25 26 26 25 25 27 24 25 24 25 28
24 29 28 31 28 33 30 26 26 25 23 24 28 32 29 27 25 24 25 24 22 21 22 20 22 24 26 24 25 25 26 24 25
19 21 19 21 31 27 26 36 28 26 23 20 22 25 26 29 30 29 30 28 26 25 24 24 24 24 24 23 21 21 22 25 26
13 13 15 15 20 28 30 29 28 33 28 23 21 20 20 21 28 35 34 32 31 31 28 26 25 25 25 24 22 22 23 23 24
9 11 13 12 11 14 26 36 39 41 38 29 27 25 22 21 20 27 37 35 34 33 32 31 29 29 27 27 25 25 24 26 28
13 14 15 16 16 19 17 18 18 21 27 30 31 29 27 23 23 21 28 36 38 39 36 35 35 34 34 33 32 32 31 33 34
23 21 20 22 22 21 22 24 24 24 30 34 39 34 31 28 26 26 23 30 37 41 40 40 41 40 39 38 38 38 38 40 43
27 26 24 25 25 27 29 30 34 34 26 34 35 34 34 33 32 30 29 28 34 39 42 43 43 43 43 42 38 38 39 41 46
26 25 25 26 29 29 32 36 37 40 42 36 30 32 32 33 36 36 35 34 33 39 43 45 45 45 42 40 40 40 36 35 40
24 23 25 29 29 32 31 36 34 35 34 33 34 34 34 34 34 35 35 35 36 38 42 42 42 43 43 44 42 42 41 41 42
30 23 18 21 24 31 35 36 32 30 32 35 36 33 32 31 31 30 31 31 31 30 36 40 42 45 46 44 42 42 45 46 45
21 27 19 18 18 23 31 36 35 32 30 35 37 35 33 30 29 28 25 26 29 29 29 33 36 38 39 41 40 40 39 37 39
14 12 14 14 10 17 22 31 34 32 29 28 34 35 31 30 29 27 27 27 25 24 24 26 28 28 28 28 30 31 32 34 37
21 15 17 20 20 16 21 24 26 30 30 27 31 34 31 32 30 27 29 26 26 26 27 28 28 28 28 28 30 33 38 41 43

GFSFLT1_700_spd_039.txt.gz
Wind_Speed
36 40 36 29 22 22 19 23 21 19 26 25 25 25 26 24 23 23 22 19 16 13 11 9 10 8 7 11 10 9 12 11 11
33 39 37 33 27 22 19 22 24 15 23 26 26 25 25 26 24 23 21 18 17 16 14 12 11 11 10 10 9 10 13 14 14
43 47 42 38 32 26 17 19 23 19 16 25 26 26 25 25 19 19 21 21 21 18 15 13 12 11 10 10 10 10 12 17 17
41 47 42 41 34 28 16 14 19 19 17 23 28 27 24 24 25 23 22 23 21 20 18 16 16 13 10 10 10 11 12 15 21
28 44 44 43 35 29 21 19 23 21 18 20 24 26 28 28 28 26 26 25 22 21 21 18 18 16 13 12 12 14 14 14 19
35 26 46 46 39 32 24 22 22 22 20 20 22 25 27 28 28 28 27 26 23 21 20 19 19 20 18 15 13 14 15 14 15
30 39 35 46 40 33 27 22 22 26 26 24 23 25 24 24 24 24 24 24 23 22 21 21 20 20 20 18 15 16 18 18 17
31 40 30 37 38 35 29 19 22 23 25 26 27 25 24 22 22 21 20 20 22 22 21 22 22 22 21 19 18 15 17 19 20
27 35 34 27 35 34 31 26 21 20 20 21 23 25 25 24 23 22 21 20 21 23 22 20 20 21 19 19 17 16 15 16 19
29 30 31 31 32 42 37 30 23 22 20 17 16 16 20 23 26 28 26 25 26 27 25 24 22 21 21 19 18 17 17 17 19
27 27 28 29 27 27 37 40 32 33 32 25 21 17 17 21 21 21 27 31 30 30 30 29 26 25 23 22 21 21 21 21 23
26 25 26 27 27 26 26 20 23 29 34 29 29 23 22 22 20 17 16 19 31 34 34 33 32 30 28 27 25 25 28 31 32
27 27 27 26 26 24 24 23 20 20 31 36 37 36 31 28 25 23 21 18 17 23 36 37 36 34 32 31 29 30 32 35 39
30 33 28 27 35 29 29 25 28 24 24 28 26 26 26 30 29 27 25 24 24 23 23 31 39 39 37 34 33 34 35 37 41
29 27 26 27 27 29 30 31 28 28 31 30 28 29 31 34 36 34 33 32 32 31 30 29 31 36 38 38 37 38 39 41 41
24 25 24 25 25 27 31 31 36 35 31 32 35 39 36 33 34 35 34 35 35 36 36 34 33 32 38 41 40 40 41 42 41
23 22 23 25 26 26 28 35 39 43 41 39 41 40 40 34 32 31 31 32 32 33 34 33 33 32 34 38 42 41 41 41 43
26 29 29 29 28 28 24 26 33 38 38 38 41 41 40 38 34 33 33 31 31 31 31 31 30 28 28 33 37 39 41 42 42
34 32 31 34 28 22 20 22 24 21 29 32 30 30 30 35 37 36 34 33 34 32 29 28 28 27 28 28 30 31 32 30 28
30 31 32 29 25 23 15 13 18 21 25 29 29 28 27 30 35 40 35 36 34 33 30 26 26 25 26 27 26 24 24 26 29

GFSFLT1_700_spd_045.txt.gz
Wind_Speed
36 34 38 32 25 29 29 25 21 26 30 31 32 32 32 30 28 27 26 24 21 18 15 14 14 12 11 12 15 15 14 15 15
48 44 42 37 32 21 23 24 25 18 25 28 29 30 30 31 30 29 28 25 23 21 19 17 16 14 13 13 15 16 17 17 16
27 36 45 46 38 31 19 18 21 20 18 20 23 26 29 30 30 29 28 27 26 23 21 20 17 15 14 14 15 18 19 19 18
25 22 33 45 39 36 26 19 20 19 19 21 22 26 28 30 31 30 30 29 28 25 23 22 20 18 16 16 15 16 18 21 21
33 31 27 37 40 36 34 26 25 23 23 22 21 22 27 28 30 32 32 30 29 27 25 24 22 21 19 17 15 13 14 18 23
25 35 37 30 39 41 37 32 27 26 25 25 22 22 27 30 31 32 33 31 29 29 27 27 24 23 20 17 16 14 13 15 17
33 39 42 40 36 35 35 34 28 27 25 25 24 25 27 32 31 31 30 29 29 29 27 27 25 24 21 20 19 19 17 15 14
34 45 47 45 36 37 31 36 32 25 24 23 24 25 28 30 30 30 29 28 28 28 27 25 23 24 23 22 22 22 19 17 15
23 40 43 40 36 31 31 36 32 26 26 24 25 20 22 25 26 27 28 27 26 26 26 26 24 23 22 22 22 20 19 18 18
18 28 35 40 37 33 32 35 32 27 26 23 19 17 14 14 18 21 22 22 24 24 23 23 24 23 22 20 20 19 18 18 19
19 26 29 32 33 29 29 33 33 28 31 21 18 18 18 17 16 16 16 18 19 20 21 20 21 22 22 23 22 21 20 19 20
24 25 22 21 28 31 33 34 37 28 31 25 23 19 18 18 18 20 22 23 22 21 22 22 22 22 23 25 24 24 23 23 24
24 24 25 29 33 35 36 32 39 32 28 28 25 23 22 17 15 15 16 14 17 23 29 30 29 29 29 29 29 29 29 30 30
25 26 27 31 36 36 38 35 38 38 33 30 27 24 28 24 20 17 16 17 19 19 22 24 27 31 33 35 35 35 36 37 39
30 30 29 29 31 33 36 37 39 41 41 37 35 32 31 30 26 22 21 20 22 23 22 23 24 24 25 28 33 37 39 39 41
31 32 31 30 28 27 29 30 32 36 38 39 38 34 28 31 30 26 26 25 23 26 27 26 25 24 25 26 27 29 31 33 38
30 32 32 30 28 27 27 28 29 29 30 33 34 34 36 38 37 35 34 32 31 28 34 26 29 29 29 29 29 30 32 34 35
27 31 34 34 32 28 27 27 28 30 32 34 35 35 36 37 36 36 37 37 33 30 30 31 29 29 29 29 28 28 31 33 34
23 23 26 26 29 28 27 25 24 25 27 31 35 34 32 34 35 36 36 37 37 37 36 34 37 33 31 31 30 30 31 32 33
22 22 24 24 23 25 25 23 23 24 25 22 24 29 34 40 41 38 40 40 41 41 42 42 36 35 34 33 32 31 31 30 30

GFSFLT1_700_spd_048.txt.gz
Wind_Speed
28 31 35 35 32 26 27 26 28 32 34 35 36 36 35 32 29 27 24 22 20 17 14 13 13 14 13 14 15 15 14 14 13
22 32 35 33 33 33 28 29 29 30 33 34 35 34 34 32 30 29 27 24 22 20 18 18 18 17 17 16 17 17 17 17 16
23 19 33 38 34 33 30 30 30 30 29 33 33 33 34 32 30 28 28 27 25 23 21 20 20 19 18 16 18 19 20 19 19
24 17 17 24 29 32 33 32 32 29 30 30 33 34 34 34 32 31 30 29 27 25 24 23 23 21 19 17 17 18 20 22 22
27 23 17 15 19 30 36 36 31 28 32 30 27 28 30 32 31 32 32 30 28 27 26 25 24 24 21 18 17 17 17 21 24
34 31 30 28 22 35 31 35 35 30 30 30 28 25 29 29 31 33 32 30 29 29 28 27 26 26 23 20 18 17 19 19 22
27 25 25 30 30 30 37 34 36 34 31 31 30 28 27 29 30 31 31 30 30 30 29 28 27 25 23 21 21 19 19 20 21
32 30 27 33 35 37 35 36 36 35 33 29 30 30 30 28 29 29 30 30 30 30 30 28 26 26 25 24 24 22 22 21 19
34 35 33 37 40 39 36 33 35 33 29 30 30 32 30 27 25 27 28 28 29 29 28 27 25 25 25 25 25 24 22 20 19
34 31 47 51 51 46 40 28 28 29 30 28 29 21 21 22 23 25 26 26 27 27 27 27 26 24 24 23 22 22 22 22 22
27 29 32 44 45 46 39 27 31 32 31 27 27 21 20 18 18 21 23 24 24 24 25 25 25 24 22 21 20 20 21 21 23
18 20 21 30 45 41 32 33 35 36 31 29 29 23 19 19 17 17 19 20 19 19 19 19 19 19 20 20 19 20 20 21 23
13 24 30 36 41 42 34 31 35 38 34 31 29 23 18 20 20 20 20 18 18 18 19 19 20 20 20 21 22 22 23 24 26
12 24 28 30 33 33 35 34 32 40 35 32 28 25 24 22 18 16 14 13 12 14 17 20 23 26 27 27 28 29 29 30 31
16 18 20 28 32 32 36 33 29 38 35 33 30 29 27 24 21 20 20 18 19 21 23 23 23 24 25 28 29 31 32 33 35
19 18 18 19 21 25 30 34 32 37 38 35 34 32 30 28 26 25 26 25 25 24 23 25 24 25 23 21 21 23 25 28 30
23 22 23 23 22 22 24 27 30 30 41 41 40 39 35 33 31 29 30 30 29 24 22 22 29 25 21 21 22 24 24 25 27
27 26 26 26 25 22 21 20 21 23 26 30 31 32 34 34 33 32 32 32 31 29 26 28 25 25 24 23 22 24 27 27 27
28 29 27 26 26 26 25 24 24 23 23 24 25 27 29 31 34 36 36 35 35 34 33 30 28 28 31 28 28 28 29 29 27
20 23 26 27 26 28 30 29 30 30 30 30 30 31 31 32 33 33 35 37 37 36 35 35 34 33 35 33 36 33 31 29 28

GFSFLT1_700_spd_051.txt.gz
Wind_Speed
21 25 27 30 32 27 26 26 26 32 35 37 37 37 36 33 31 29 27 26 23 19 16 14 14 13 12 13 13 12 11 11 11
25 24 26 26 30 30 26 27 27 27 32 33 36 36 36 34 33 31 30 27 25 22 20 18 18 16 15 15 14 15 15 15 14
28 19 25 28 27 29 31 28 25 28 27 31 31 34 35 35 34 33 31 30 28 24 22 21 20 18 16 16 15 17 18 18 18
36 30 20 24 27 27 26 28 30 25 31 28 33 33 34 35 35 34 34 33 30 27 25 24 22 19 18 19 17 18 20 21 21
27 30 27 20 20 26 28 27 27 29 27 34 32 33 35 35 35 35 35 34 32 30 28 26 23 22 22 20 19 20 20 23 24
32 34 27 23 19 16 26 33 33 29 27 31 34 35 35 36 36 37 36 34 33 32 30 28 26 25 24 21 21 21 20 21 24
27 33 39 35 30 25 22 26 32 35 29 28 35 33 37 38 37 36 35 34 34 33 32 30 28 27 25 24 23 23 22 22 22
31 29 25 32 29 28 24 25 33 35 34 31 32 36 32 35 34 34 35 35 34 33 34 31 29 28 27 26 25 25 23 21 21
25 26 32 30 29 29 31 28 33 34 35 34 35 37 33 30 32 33 34 34 34 34 32 32 31 29 28 28 26 24 22 21 22
23 27 31 34 34 30 34 32 29 35 36 35 37 35 33 31 31 32 34 32 34 34 32 31 30 28 27 26 24 24 23 22 23
23 28 31 34 41 34 36 35 33 33 40 36 34 34 33 31 32 31 32 33 33 31 30 30 28 26 24 23 23 21 21 23 25
24 25 31 35 45 48 44 42 36 33 40 35 35 31 34 28 30 33 31 30 31 29 29 28 27 26 25 23 22 21 22 24 26
26 20 24 40 45 48 48 49 45 36 39 32 33 32 25 27 25 25 27 27 27 26 26 25 26 26 24 23 22 22 24 26 28
22 21 17 29 36 38 42 47 45 37 40 35 34 33 30 25 22 23 22 22 22 23 22 22 23 22 22 22 22 22 23 25 27
18 15 12 19 26 37 47 50 45 34 40 38 36 36 30 28 27 27 26 26 26 26 25 25 25 26 26 25 26 27 29 29 30
13 11 12 17 21 29 37 33 32 30 37 43 38 37 35 31 30 30 29 28 25 24 23 24 24 25 25 27 28 28 29 30 31
18 12 11 17 22 25 29 30 32 34 39 45 42 38 36 33 36 33 31 30 27 27 27 23 24 24 26 26 23 22 22 23 24
24 19 15 17 21 23 24 27 33 37 39 43 44 42 40 38 38 35 35 34 31 32 29 27 26 23 23 22 23 22 23 24 24
26 24 21 19 22 23 25 27 29 30 31 39 45 44 43 43 42 35 28 26 27 32 33 31 29 27 26 27 28 28 26 24 25
25 28 27 25 23 25 27 27 26 25 24 23 32 30 35 29 33 34 30 25 25 25 26 31 33 31 30 29 29 31 31 29 29

GFSFLT1_700_spd_054.txt.gz
Wind_Speed
25 23 23 22 26 28 27 26 26 32 35 35 35 36 35 34 32 31 29 27 25 22 20 17 16 14 13 11 9 8 9 9 8
24 20 20 23 24 27 28 28 27 23 30 34 35 34 35 36 34 34 32 29 26 25 23 21 19 17 14 13 12 11 11 11 11
26 27 23 22 26 27 28 28 27 27 21 29 32 35 34 36 36 34 33 31 29 28 25 24 21 18 16 15 13 12 13 14 14
32 25 27 22 26 23 22 27 29 26 29 22 30 32 35 36 37 36 34 34 32 30 28 27 23 20 18 17 16 14 14 16 17
33 32 29 25 19 22 28 26 26 28 26 29 24 28 30 33 35 37 37 35 33 32 30 28 25 23 21 19 19 17 15 17 20
26 27 31 30 32 29 30 30 27 26 27 27 29 27 26 30 35 37 38 36 34 34 33 31 28 26 24 22 21 20 18 18 20
27 33 37 30 31 28 20 25 31 30 26 28 29 31 30 28 32 34 35 34 35 35 34 33 31 29 26 25 25 24 21 20 20
21 29 33 38 36 31 26 23 26 35 35 30 28 29 32 31 31 33 33 34 35 35 36 34 32 31 29 28 28 26 24 22 22
24 22 25 29 42 41 37 27 25 34 38 36 30 29 30 33 31 34 34 35 36 36 36 35 34 32 31 30 30 28 25 24 24
32 27 25 28 31 35 38 32 28 28 34 35 35 32 31 31 31 32 36 36 36 37 37 36 35 33 32 31 30 27 25 25 25
27 28 26 28 35 34 37 34 31 29 32 38 38 36 35 32 29 27 31 35 36 37 37 37 36 34 32 31 29 28 27 26 27
22 24 27 29 32 39 39 37 32 32 31 36 41 39 37 34 30 31 29 32 35 35 35 36 35 33 31 30 27 27 26 27 29
27 27 26 29 33 39 38 38 35 34 33 32 41 39 38 39 34 31 29 30 30 33 34 32 32 32 30 28 27 28 27 28 30
34 27 25 30 34 40 40 45 43 41 39 33 36 40 39 39 37 36 31 34 36 35 36 34 33 32 30 29 28 28 29 30 31
31 28 25 25 26 37 46 49 52 51 45 41 35 43 40 39 29 32 30 28 30 36 35 33 32 31 30 30 30 29 30 31 30
28 21 18 18 22 30 39 47 52 53 52 48 41 43 44 34 32 30 29 27 29 33 32 32 31 31 31 31 30 29 29 29 30
17 16 13 17 21 24 30 41 47 49 47 41 41 45 45 41 39 36 34 33 34 34 35 35 35 34 33 32 30 30 31 31 32
20 15 14 17 24 26 29 33 37 40 41 42 42 49 48 46 41 39 38 37 38 38 37 36 33 30 28 27 26 25 23 25 27
24 23 18 18 20 25 28 30 32 36 39 41 47 51 50 48 46 44 41 39 40 40 38 36 34 32 31 29 29 28 27 28 28
23 22 24 22 23 26 28 28 30 33 37 41 43 48 53 52 49 46 45 43 44 44 43 42 38 37 35 31 29 29 31 32 29

GFSFLT1_700_spd_057.txt.gz
Wind_Speed
34 29 28 29 24 23 21 22 27 30 32 32 32 33 32 31 30 28 26 24 22 20 16 15 18 13 11 10 8 7 7 6 4
36 34 31 30 28 27 25 24 21 26 29 29 32 31 32 33 33 32 30 28 26 23 21 19 20 14 13 12 11 10 9 8 7
29 38 31 29 30 28 24 25 25 24 22 28 29 32 31 32 35 34 33 30 29 26 24 22 21 17 16 14 12 11 10 10 10
30 25 25 26 29 28 27 28 29 26 28 21 28 31 31 31 33 36 36 34 32 30 27 25 23 20 19 17 15 14 13 13 13
37 30 28 28 27 29 30 29 30 29 25 27 21 26 29 31 32 34 36 36 33 32 31 28 24 23 22 20 18 16 15 16 17
32 36 33 30 28 29 31 31 30 30 30 25 24 24 25 28 32 35 37 37 35 34 32 30 27 26 24 22 21 18 16 16 17
26 31 36 33 30 28 28 28 25 29 26 30 29 26 26 25 30 32 36 37 36 35 33 32 29 27 26 24 24 21 19 17 18
24 23 26 34 34 30 32 32 27 29 34 29 30 29 26 25 23 29 32 36 35 35 35 33 30 29 28 26 26 25 22 20 19
16 20 18 25 27 28 30 30 24 22 27 33 32 28 27 26 28 27 29 32 35 35 36 34 32 32 30 29 28 27 24 22 22
17 18 17 18 20 25 27 28 34 26 26 31 35 33 30 29 27 28 26 29 33 35 36 35 34 33 32 31 29 29 26 24 25
26 25 28 23 27 31 38 37 28 31 30 32 38 36 35 31 27 24 28 27 33 34 35 35 35 33 33 31 30 30 28 26 26
24 24 26 26 31 30 34 39 38 32 35 32 37 39 37 34 32 26 25 24 29 32 33 34 35 33 32 33 31 29 28 29 29
32 27 23 26 30 33 35 37 37 39 39 36 34 41 38 36 37 33 27 24 21 25 29 30 31 31 32 32 30 29 28 30 31
40 35 33 28 30 34 35 39 42 43 41 38 31 32 38 41 38 39 32 29 27 24 24 27 30 31 31 31 30 29 29 30 33
36 39 37 32 27 31 36 39 44 45 45 37 37 35 34 44 42 41 39 34 30 29 29 29 29 31 33 32 31 31 32 33 35
43 39 36 34 30 29 38 43 43 44 45 46 44 39 33 38 47 44 42 37 34 33 36 38 37 36 36 34 33 33 33 33 34
45 43 35 33 30 31 36 41 47 48 52 54 52 45 38 35 46 43 43 38 39 32 33 33 36 38 36 35 34 33 32 32 33
33 29 26 28 26 27 31 39 45 51 55 56 57 53 46 40 45 43 40 37 36 33 31 32 35 35 34 33 32 31 29 30 31
34 32 29 24 24 25 27 32 35 39 44 48 49 49 46 41 48 46 43 40 35 35 35 34 34 35 34 33 35 30 31 31 31
30 33 33 29 27 26 28 28 28 22 35 39 31 38 44 47 51 49 47 44 40 40 37 37 39 39 35 32 30 28 30 29 29

GFSFLT1_700_spd_060.txt.gz
Wind_Speed
43 35 33 34 27 20 17 18 20 22 24 25 28 29 29 27 25 25 22 19 16 20 11 6 7 9 7 6 5 4 3 2 4
35 38 37 33 33 25 20 19 16 19 21 24 26 26 29 29 28 28 26 23 20 19 15 14 17 11 9 8 7 7 7 4 3
30 44 49 34 38 30 24 22 18 16 17 22 24 27 27 29 28 29 29 26 24 21 18 18 17 12 12 10 9 9 8 7 6
30 22 42 40 37 31 25 25 26 23 19 15 24 26 27 28 31 31 31 30 28 25 22 20 22 15 12 12 11 10 10 10 9
35 18 24 33 36 40 33 28 27 25 24 23 17 22 27 27 29 32 33 33 31 29 27 24 23 20 16 15 13 12 11 12 12
24 24 21 19 18 44 41 28 27 27 27 23 23 23 21 27 28 31 32 34 33 32 30 28 24 23 21 17 16 15 14 13 15
28 21 22 25 22 33 36 27 27 25 28 29 25 24 25 19 26 27 29 31 33 32 31 30 27 24 23 21 20 19 17 16 16
16 25 24 31 32 29 35 30 31 28 28 27 28 27 25 21 18 25 27 29 31 33 33 32 30 27 26 24 23 22 20 18 18
8 19 21 18 21 36 44 31 32 27 23 26 29 26 23 25 25 24 23 28 29 32 34 33 32 31 29 27 26 23 22 20 20
4 5 15 25 17 13 29 42 47 27 24 24 31 30 27 25 27 26 26 23 27 30 32 33 33 33 32 30 27 25 24 22 21
18 4 13 22 29 28 13 15 31 25 31 27 27 32 33 29 26 25 27 29 26 27 30 33 34 33 32 32 29 27 26 25 24
28 22 20 23 28 29 31 31 28 28 30 32 26 30 33 33 31 27 24 28 30 27 28 30 33 33 32 32 30 28 27 28 27
38 30 23 23 31 31 27 29 37 35 35 33 34 28 29 33 34 32 28 24 25 28 27 27 30 31 31 31 31 29 27 28 29
31 32 22 24 23 22 22 27 28 34 43 43 37 30 30 33 38 34 33 31 27 23 21 25 30 30 30 31 31 29 28 27 29
40 38 33 30 27 26 24 25 34 34 35 36 38 38 34 34 36 39 38 35 34 30 27 23 25 29 29 29 28 28 29 28 31
38 37 37 32 29 28 32 28 32 39 37 37 37 39 41 35 36 40 43 40 39 36 33 30 26 26 27 27 26 28 29 30 31
47 49 47 42 33 33 32 31 31 36 41 40 42 42 44 43 37 37 38 44 42 42 37 34 32 30 30 29 29 29 29 31 31
35 39 42 44 45 45 36 35 35 37 39 42 43 45 48 49 42 38 36 43 46 43 41 35 33 32 33 35 35 33 34 32 27
35 38 37 42 45 42 38 36 36 41 40 43 46 48 50 51 47 42 39 38 47 47 43 38 35 32 34 33 32 32 31 30 26
39 39 36 41 43 39 35 34 36 34 38 38 46 49 55 54 53 49 45 40 46 47 44 39 38 34 33 30 29 27 24 24 25

GFSFLT1_700_spd_063.txt.gz
Wind_Speed
30 38 39 37 27 32 36 31 23 26 27 26 28 28 26 25 24 22 19 16 12 12 11 8 11 11 9 6 5 4 5 6 6
29 28 38 42 38 28 30 32 21 23 27 26 25 27 26 26 26 25 22 19 15 11 10 10 12 12 10 8 6 5 5 6 6
35 31 44 44 46 39 32 30 22 21 25 29 26 26 27 25 26 26 23 22 19 15 13 11 8 10 9 7 7 6 6 6 7
32 37 40 27 45 45 42 38 35 24 20 29 32 30 28 27 27 29 28 25 22 20 17 17 13 9 8 7 6 6 7 7 8
32 27 28 17 19 40 37 38 36 36 26 22 30 28 28 29 27 28 30 30 26 23 21 21 18 13 12 11 9 8 8 8 8
39 35 25 21 24 21 53 48 38 37 36 28 25 30 30 29 30 30 29 30 28 27 25 24 23 19 15 14 12 11 11 11 10
26 34 30 24 28 8 25 38 38 35 35 35 30 27 27 25 28 30 29 28 29 29 28 27 26 24 21 17 15 15 14 14 14
12 24 28 24 17 19 18 35 47 32 33 36 32 30 32 27 21 28 31 30 29 29 29 28 27 26 25 24 21 19 18 16 15
6 9 22 23 28 30 26 27 38 39 34 34 32 32 29 30 27 23 27 30 29 30 28 29 29 29 28 27 26 23 20 19 18
14 8 18 11 24 19 38 44 33 52 47 51 24 29 30 30 28 27 24 25 29 29 30 29 30 31 30 29 27 25 24 23 21
19 19 17 15 13 19 21 18 42 36 58 47 35 30 27 29 30 29 28 27 25 26 29 30 29 30 31 31 29 27 26 25 25
25 26 24 18 12 12 11 13 12 24 25 39 33 30 28 31 31 30 30 29 27 27 25 25 29 29 30 31 30 29 27 27 28
35 24 33 26 19 6 6 8 15 23 22 33 36 27 22 27 30 31 31 29 27 27 28 26 22 27 29 30 30 29 28 28 28
45 36 38 32 31 14 11 9 13 24 25 41 33 34 29 30 28 29 31 33 30 28 27 28 28 26 28 30 30 30 29 29 30
30 38 38 29 29 24 17 19 20 16 19 38 37 37 36 32 30 29 30 34 33 31 30 26 25 27 29 31 30 30 30 31 31
31 29 36 32 26 31 24 16 19 28 29 29 38 41 42 37 36 35 33 33 35 34 36 33 27 24 21 25 29 30 29 29 29
41 34 31 29 33 36 31 24 21 24 27 30 34 37 41 41 38 37 34 32 35 37 37 40 36 33 27 21 23 28 29 28 28
46 40 37 35 35 50 48 38 32 26 26 30 36 39 37 41 41 39 37 36 34 35 38 41 43 38 34 29 24 23 23 24 24
43 26 35 36 37 45 54 52 42 38 30 32 37 41 36 38 42 43 43 42 38 36 37 40 44 43 39 34 30 28 30 32 29
33 26 33 38 40 34 57 42 37 38 38 35 38 40 38 39 40 44 46 46 44 42 40 38 44 44 43 38 35 33 30 28 26

GFSFLT1_700_spd_066.txt.gz
Wind_Speed
22 35 38 25 30 22 20 23 22 22 25 27 29 30 27 24 23 22 20 17 15 16 14 11 13 12 11 9 7 6 5 5 7
29 30 33 31 25 25 16 18 20 21 24 26 28 30 29 27 25 25 21 17 14 13 13 14 14 13 12 11 11 9 7 6 6
33 30 28 34 26 23 21 23 18 19 23 29 28 30 30 29 27 25 23 21 18 15 15 15 13 15 14 13 12 11 9 7 6
35 39 37 29 23 27 21 22 22 20 22 28 32 32 32 31 31 29 28 26 22 20 19 17 15 16 16 13 12 12 11 11 10
18 45 41 37 24 20 28 29 25 25 24 27 32 32 33 32 31 33 32 30 25 22 20 19 17 16 16 15 14 13 12 12 11
14 36 46 39 38 24 12 32 27 32 28 26 30 32 34 34 33 34 35 34 31 28 25 23 20 18 17 17 14 13 13 13 13
7 24 43 41 37 27 25 31 32 33 30 28 28 31 32 35 36 35 34 35 35 33 30 29 26 22 19 18 18 17 16 15 14
8 19 39 41 40 34 31 33 35 38 37 32 32 31 33 34 35 35 36 36 38 37 35 33 31 29 25 22 21 21 19 18 16
7 4 24 43 40 40 39 38 38 42 40 40 36 34 36 32 33 35 34 36 37 38 37 36 35 34 31 28 26 24 22 21 20
12 8 8 15 22 41 47 49 48 35 49 47 42 34 34 32 29 34 32 31 37 37 37 38 37 36 35 33 31 28 25 24 24
14 15 14 17 13 27 42 32 47 39 40 44 44 42 30 29 27 26 32 34 31 35 36 37 36 36 36 36 33 32 30 28 28
19 20 20 20 17 15 14 7 33 40 38 35 43 43 35 27 25 21 27 33 34 31 32 35 35 33 34 36 35 34 33 32 33
21 20 24 20 20 13 6 12 25 35 40 38 42 48 42 36 29 26 26 32 31 31 33 31 30 31 31 32 35 35 35 35 35
27 24 21 26 24 30 14 5 6 9 27 39 37 50 47 40 33 31 23 22 28 29 34 33 34 32 29 29 32 34 35 36 37
25 27 24 21 24 25 33 19 7 9 14 30 40 41 50 36 37 34 31 25 26 26 32 34 35 33 34 34 32 34 34 36 37
29 29 29 28 33 32 35 24 22 16 13 15 32 48 48 47 42 40 34 31 28 27 28 35 36 35 29 29 33 33 34 35 36
41 35 32 32 28 32 37 42 32 26 24 16 22 37 51 41 42 34 33 36 32 32 31 32 38 38 34 27 23 22 27 34 35
42 44 42 37 38 31 27 40 42 35 31 20 14 27 42 43 36 37 39 40 42 39 34 32 31 38 40 37 31 25 20 23 30
44 43 43 40 39 42 37 34 45 45 43 34 26 27 28 39 39 37 41 44 44 41 38 35 32 31 36 42 41 38 32 26 23
36 42 45 42 41 43 44 40 37 36 48 46 36 36 30 35 38 40 38 41 44 43 41 38 36 34 34 37 43 44 41 37 35

GFSFLT1_700_spd_069.txt.gz
Wind_Speed
14 26 22 35 26 18 20 18 19 20 19 22 24 27 24 22 21 21 19 23 19 17 15 11 10 11 10 10 8 6 4 4 7
22 28 25 26 24 22 20 21 18 19 18 19 23 26 27 25 23 23 20 20 20 20 18 16 14 12 12 11 10 9 8 6 4
21 28 31 30 30 24 23 19 16 19 19 18 19 23 27 26 24 23 22 22 19 17 19 19 18 16 15 14 12 10 9 8 7
16 24 29 26 29 29 20 19 21 21 21 22 22 24 26 28 27 26 24 24 22 19 17 18 16 17 17 16 15 14 12 11 11
9 11 24 28 34 30 33 29 22 22 22 23 22 20 26 28 29 29 28 25 23 22 20 19 16 16 17 18 16 16 15 14 13
7 11 27 31 42 34 34 33 31 27 27 23 20 21 25 29 30 31 31 29 26 25 24 23 21 19 19 18 17 15 15 15 15
9 6 26 32 42 40 36 33 34 34 35 29 29 25 24 27 31 31 31 32 31 30 28 27 27 25 23 22 20 18 16 17 17
8 8 18 34 40 43 41 36 37 36 39 40 35 33 30 28 26 30 32 32 34 33 33 31 30 29 28 26 24 22 21 20 19
7 6 13 29 37 37 40 40 37 34 35 41 38 37 33 31 29 27 31 33 34 36 36 36 35 34 32 31 29 26 25 24 24
6 5 4 10 28 38 42 44 37 38 37 36 39 39 35 32 30 28 26 29 32 35 36 37 38 37 37 36 34 31 29 28 28
15 9 9 9 8 7 21 39 46 48 42 39 37 39 37 31 28 29 29 29 31 32 34 35 37 39 38 38 38 35 33 32 32
22 19 17 15 16 9 10 22 30 38 41 39 36 34 36 35 33 32 30 33 34 30 31 32 32 35 37 37 36 36 36 36 36
23 25 21 21 18 24 13 13 18 25 34 39 38 42 41 37 36 32 30 32 34 31 27 26 28 30 33 34 33 34 35 37 39
27 28 26 22 23 22 21 18 19 20 23 37 33 37 32 33 36 38 34 31 31 32 32 28 29 30 29 30 29 31 34 36 39
25 24 28 30 24 25 25 23 22 25 33 18 26 35 42 39 37 39 37 35 29 29 30 33 33 34 35 34 33 30 29 33 37
34 31 26 32 34 27 28 30 30 23 21 21 15 23 32 38 38 36 38 39 35 33 30 33 35 36 36 36 37 35 34 33 32
38 38 34 33 36 35 31 37 39 38 33 22 21 19 24 32 39 34 44 48 42 34 32 32 31 35 36 35 34 34 34 35 35
38 42 41 38 38 39 37 32 33 41 46 47 40 31 27 35 46 51 44 52 49 37 36 32 31 30 33 33 36 34 34 32 31
40 40 42 44 40 39 43 41 37 34 35 39 45 44 30 34 41 36 40 44 42 39 39 38 35 33 32 30 31 35 39 37 34
36 41 43 45 45 42 39 39 43 47 42 40 41 42 51 46 30 29 27 42 48 46 40 40 36 34 33 32 32 31 35 41 43

GFSFLT1_700_spd_072.txt.gz
Wind_Speed
14 25 25 29 26 24 22 21 20 20 18 15 14 16 18 17 16 16 17 19 15 14 14 12 12 11 10 8 7 5 3 3 6
16 22 30 23 22 26 24 22 23 21 19 17 16 15 19 19 18 17 16 17 17 18 16 16 14 12 13 12 9 7 6 4 4
14 19 23 28 26 20 25 23 20 22 19 17 15 16 19 20 18 18 18 18 17 15 18 19 17 14 15 14 11 11 9 7 5
6 17 21 23 30 27 19 25 25 21 23 21 20 19 17 20 21 20 20 20 19 18 18 20 20 17 17 17 15 13 11 10 8
5 7 17 22 26 31 27 22 27 28 25 24 21 20 20 20 21 22 24 22 21 21 20 19 19 17 18 18 17 16 14 12 10
9 9 11 21 27 26 31 26 28 29 28 28 27 25 23 23 23 24 25 25 24 23 23 23 21 19 18 17 17 17 16 15 14
4 8 8 13 25 29 28 27 30 32 29 29 31 30 30 30 26 25 25 25 26 27 26 26 26 24 22 20 19 19 19 19 17
7 7 7 9 19 25 30 33 32 33 35 31 29 32 32 31 28 27 26 28 26 28 29 29 28 28 27 24 23 23 22 21 21
9 11 8 9 14 22 29 34 36 33 32 31 29 32 35 32 33 32 30 29 28 28 29 31 31 32 32 30 28 26 26 26 25
5 6 8 10 9 16 19 27 34 36 34 31 27 25 29 33 31 34 35 32 31 30 29 30 32 33 35 34 33 31 29 29 29
12 8 7 8 10 10 10 17 24 34 32 29 32 31 26 25 28 32 35 36 33 31 30 31 31 33 35 35 35 34 33 32 33
23 17 14 14 12 10 9 11 13 20 33 35 43 37 33 32 32 32 34 36 35 31 32 32 31 31 34 37 35 34 33 34 37
28 28 20 18 20 17 18 13 14 15 19 26 30 36 37 35 32 30 31 32 34 33 33 32 32 32 32 34 35 33 32 34 36
31 31 32 25 20 21 21 20 19 15 18 17 23 28 32 38 35 32 33 32 34 33 33 33 36 34 32 32 31 31 31 32 35
35 33 31 34 31 23 22 23 22 23 22 20 20 20 22 32 36 32 31 29 31 30 28 28 32 33 34 34 31 29 29 29 31
38 43 41 36 39 35 26 24 27 27 24 20 18 23 20 19 25 36 35 32 31 33 32 31 30 33 38 36 35 34 32 32 31
42 45 48 46 42 43 42 31 29 31 31 27 27 26 29 20 13 21 32 29 31 34 40 35 33 33 37 38 36 36 34 33 34
45 44 46 50 52 47 45 42 36 31 32 38 40 38 35 34 21 19 20 28 31 39 39 38 35 33 33 36 34 33 30 30 30
41 46 48 49 51 52 49 49 46 40 38 33 37 37 44 40 37 23 36 27 34 42 34 38 45 38 34 35 32 30 31 32 32
25 32 40 47 49 48 47 50 52 48 46 45 39 38 35 40 48 45 38 34 34 29 34 37 39 40 37 34 35 34 32 29 28

GFSFLT1_700_spd_075.txt.gz
Wind_Speed
16 21 26 17 20 26 30 29 26 24 18 16 15 12 10 11 13 13 14 14 12 9 8 9 10 10 9 8 6 5 4 4 7
14 17 20 18 19 21 24 27 28 23 19 18 15 12 10 11 12 13 12 13 15 13 11 11 13 12 12 10 9 7 5 5 5
9 13 18 19 20 17 22 21 21 21 18 20 18 14 13 12 12 13 14 15 15 14 16 15 14 13 13 13 12 9 8 6 4
2 11 15 19 21 20 18 22 22 21 22 22 22 21 17 14 14 14 15 17 17 16 16 17 17 15 14 15 16 13 10 8 6
4 2 10 18 21 23 24 22 24 25 25 25 26 24 22 18 16 17 17 18 18 19 18 17 17 18 18 17 18 16 13 12 10
2 1 8 13 18 23 22 24 29 22 26 27 27 28 27 25 22 21 20 18 20 20 20 20 20 18 18 17 20 20 17 16 14
3 3 2 6 16 22 26 26 26 26 26 27 30 30 29 30 27 25 24 22 23 23 23 23 23 22 21 20 19 20 20 18 17
3 5 5 5 7 16 22 27 26 26 27 29 31 31 30 32 30 31 26 27 27 26 26 27 26 26 26 25 23 21 20 20 19
5 6 7 8 8 11 17 23 25 28 29 30 30 26 28 31 33 35 34 33 32 32 31 30 29 30 30 29 28 25 23 23 23
5 5 6 6 7 9 12 16 21 26 29 31 30 29 30 29 34 34 33 33 34 34 34 33 33 32 32 32 32 30 28 27 28
12 11 8 7 7 8 9 11 15 20 25 28 30 32 32 26 23 29 33 35 36 35 35 36 35 34 34 33 33 32 32 31 32
21 18 17 15 13 10 11 13 13 14 17 18 28 34 32 29 24 24 24 30 35 36 37 37 35 34 35 35 33 33 33 34 35
26 27 26 22 21 19 18 15 15 15 17 20 21 29 35 35 29 27 28 25 32 35 38 38 37 35 33 32 31 32 33 35 38
28 29 29 29 27 25 24 22 22 20 17 19 21 24 31 33 35 27 30 31 29 34 38 39 39 37 35 33 29 28 29 33 37
30 35 34 34 33 29 30 29 26 24 25 24 20 23 22 23 31 39 40 35 35 35 37 38 41 39 39 37 34 31 30 30 33
36 35 37 41 43 41 33 33 33 31 28 27 23 25 22 24 21 26 28 35 32 35 35 38 35 34 34 34 35 32 32 32 31
34 38 43 45 46 46 47 43 40 38 36 34 30 25 26 23 22 21 20 26 34 33 30 38 39 36 35 32 32 33 34 34 35
31 34 40 47 50 53 51 50 50 47 43 41 39 36 31 28 28 28 23 22 21 21 26 36 36 38 39 36 34 30 32 33 32
32 30 32 39 47 52 54 52 53 53 52 49 47 44 42 39 37 35 34 30 28 25 19 19 28 38 37 37 35 30 31 34 33
30 32 29 30 35 44 54 56 54 54 55 56 52 49 48 44 42 38 40 43 39 33 31 28 22 31 33 33 34 35 32 33 35

GFSFLT1_700_spd_078.txt.gz
Wind_Speed
13 22 22 22 25 28 31 29 27 25 21 19 15 12 10 10 12 13 14 13 12 9 9 9 6 6 6 5 5 4 3 5 7
13 19 21 21 20 23 27 32 29 28 23 20 18 15 13 10 11 13 14 16 15 13 10 10 8 7 8 7 6 5 3 4 4
13 15 27 20 19 19 24 28 27 26 25 21 17 16 14 13 11 12 14 16 16 16 15 14 11 9 9 9 8 7 7 5 5
14 15 16 26 21 20 25 26 26 25 24 22 22 21 20 18 15 11 13 15 16 15 15 16 15 13 11 10 10 10 9 8 7
9 18 7 6 24 25 18 26 28 26 25 23 22 24 24 22 21 20 16 15 15 17 16 16 16 16 16 14 12 12 12 11 10
7 11 22 21 27 27 31 35 31 28 26 25 27 28 27 27 25 24 20 16 15 17 18 18 18 17 16 16 15 16 16 15 13
7 7 7 13 17 22 26 29 32 35 33 29 29 30 30 30 29 28 25 21 19 19 20 21 21 21 20 19 17 17 18 19 16
6 5 4 3 6 14 19 24 31 34 33 30 29 29 31 31 29 30 28 29 29 25 25 24 24 25 25 24 23 20 19 18 17
5 4 4 5 4 4 7 15 19 26 29 32 31 28 29 30 32 32 33 31 30 32 31 29 28 29 29 29 28 26 24 21 21
9 8 8 8 8 8 10 8 10 16 22 26 30 30 32 34 35 36 36 35 33 33 34 33 34 33 32 32 32 30 28 26 26
12 11 10 10 10 10 11 12 11 11 12 17 22 28 28 32 34 30 32 34 34 33 31 35 35 34 34 34 34 33 32 31 31
18 17 17 16 14 13 13 14 14 14 15 14 14 27 30 30 32 32 34 32 38 37 38 36 34 33 34 35 34 33 33 33 36
21 22 22 22 21 21 20 19 17 18 18 18 16 17 22 33 35 37 39 36 32 32 38 40 40 39 36 35 33 33 33 34 38
25 25 26 26 26 27 27 26 24 23 22 23 23 21 21 22 26 41 45 33 32 30 31 36 41 42 39 34 33 33 33 35 38
25 29 31 33 32 32 32 32 32 31 28 28 27 24 25 24 23 22 30 36 39 37 33 33 36 41 41 39 36 34 33 33 34
24 27 31 33 34 35 35 38 39 36 36 34 32 30 31 28 27 27 25 26 35 37 36 33 38 43 44 41 39 38 37 37 36
21 22 23 28 33 39 40 40 41 44 42 40 41 37 33 30 33 30 29 28 28 27 30 39 40 49 43 44 39 40 40 39 37
21 23 23 25 29 34 39 43 47 47 47 47 46 45 43 40 34 37 33 30 28 26 26 30 34 33 42 48 41 39 40 40 38
19 20 22 24 26 30 33 38 44 48 52 52 52 50 50 48 46 41 41 40 37 32 29 29 28 37 49 47 38 43 43 39 36
20 21 23 25 25 26 28 32 36 40 46 52 55 57 55 55 54 51 49 46 43 41 38 34 31 28 30 36 36 39 40 36 38

GFSFLT1_700_spd_081.txt.gz
Wind_Speed
11 20 24 26 25 26 28 27 23 24 22 19 16 14 13 13 13 14 13 14 12 14 10 6 9 4 3 2 2 1 1 3 5
15 18 19 24 25 30 30 29 27 25 23 20 18 16 14 12 12 11 12 12 13 13 14 7 10 8 4 3 3 4 2 2 4
16 23 21 35 29 24 27 26 26 26 23 21 19 18 17 14 11 11 12 14 13 14 13 15 12 10 6 4 4 5 5 5 4
18 22 28 26 24 32 28 19 22 25 25 25 23 20 19 17 15 13 13 14 15 15 15 14 16 14 9 8 7 6 7 6 7
19 13 15 26 24 31 32 30 29 22 23 24 24 22 22 20 19 18 17 15 15 15 15 15 14 16 13 12 11 10 8 8 8
19 18 22 24 20 26 29 35 34 30 31 25 23 27 25 25 23 22 21 18 17 16 16 16 16 16 15 15 15 15 12 12 11
12 19 21 18 10 20 31 37 38 37 34 34 28 23 28 28 26 24 24 25 22 20 19 19 19 19 18 18 16 17 17 16 15
14 13 14 18 19 18 15 24 32 34 36 36 38 36 24 22 30 28 29 27 26 26 25 22 22 22 22 22 21 20 20 18 18
12 11 11 9 8 11 17 19 25 34 34 33 32 31 31 33 32 33 33 30 30 29 28 27 27 26 26 26 25 24 22 21 20
13 11 10 10 9 7 6 5 5 12 21 30 37 36 34 33 34 35 35 34 31 35 32 31 27 29 30 30 29 28 27 25 25
13 12 11 10 9 9 9 8 8 7 7 12 19 24 33 37 35 37 37 36 34 36 34 34 36 32 31 31 30 29 29 29 29
17 16 15 14 12 11 11 11 11 11 12 13 13 13 23 30 35 39 39 40 39 35 37 38 38 34 31 31 31 31 30 30 33
22 21 21 20 20 20 19 18 16 16 17 19 18 17 17 17 29 33 34 35 36 35 33 34 39 39 39 37 33 31 32 32 34
22 22 23 23 23 24 25 25 24 24 23 24 24 23 23 22 21 22 32 37 38 39 39 37 37 40 42 42 41 38 37 35 36
25 26 25 24 24 26 27 28 28 29 31 31 30 30 29 28 28 27 24 23 31 38 37 36 34 36 37 38 40 41 41 39 36
26 27 28 26 26 26 26 28 28 29 33 33 36 37 36 35 33 31 31 29 26 28 36 45 49 44 43 40 34 35 37 42 40
24 27 28 27 28 28 27 27 28 30 33 34 33 36 39 41 40 39 37 37 33 31 31 36 44 44 43 44 40 36 38 43 43
18 18 19 20 23 24 24 24 25 26 30 33 37 39 39 39 43 45 45 42 40 39 36 34 34 37 43 49 49 46 44 45 48
18 20 20 21 22 23 26 26 25 23 23 26 29 34 40 43 45 46 50 49 46 43 42 39 36 36 35 36 38 38 42 46 49
19 19 19 20 21 20 20 22 24 25 24 27 30 31 33 37 44 50 50 52 55 53 48 47 46 41 39 38 35 33 43 46 43

GFSFLT1_700_spd_084.txt.gz
Wind_Speed
5 24 33 38 32 30 33 30 22 21 23 24 23 21 18 17 17 16 15 14 12 14 7 8 7 1 1 3 1 3 4 4 4
17 18 19 30 31 26 34 33 27 20 24 23 21 19 19 18 17 16 14 15 17 12 12 9 6 7 4 5 4 3 1 1 1
22 22 36 31 41 38 27 33 28 23 21 23 20 19 18 17 15 15 14 14 12 12 11 13 5 11 7 7 6 4 3 2 4
20 26 34 27 35 27 35 38 36 30 18 24 22 22 20 18 16 15 14 13 12 11 11 13 13 9 6 6 6 6 6 4 2
23 23 19 19 25 36 34 39 36 42 32 22 24 23 23 22 20 18 16 14 13 12 12 13 14 12 11 9 10 9 6 7 6
22 19 15 19 17 18 32 33 36 37 44 34 26 25 24 21 22 19 16 16 16 14 14 14 14 14 12 12 13 13 10 9 10
19 15 12 17 17 19 23 26 30 31 33 30 32 30 29 24 24 21 17 20 18 17 18 16 16 16 16 14 14 13 13 13 12
13 16 16 17 17 15 23 21 33 35 34 32 34 30 20 23 24 24 22 22 22 21 23 21 20 19 18 17 16 15 14 15 14
15 15 16 16 15 15 14 12 7 28 25 25 29 30 25 23 22 22 25 27 26 24 23 23 22 23 21 21 21 17 17 16 17
13 12 10 9 7 7 6 6 10 11 13 22 30 24 23 28 29 26 24 29 30 28 27 26 26 24 24 24 23 22 21 20 20
16 14 13 12 10 8 7 6 8 7 11 17 24 31 31 33 33 33 32 31 31 32 30 29 29 29 26 27 27 24 24 24 25
16 16 16 15 13 12 10 8 8 8 9 9 13 17 25 32 37 40 38 35 34 35 34 34 32 30 28 28 26 27 28 28 29
19 19 16 15 15 16 14 14 13 13 13 13 13 13 13 14 14 18 28 35 39 38 38 37 35 34 34 32 33 32 32 32 33
17 18 20 21 22 23 21 20 20 21 22 22 20 20 20 19 19 19 18 18 23 31 35 38 36 35 33 31 31 36 36 36 37
23 23 23 23 24 25 25 26 25 25 27 27 28 29 28 28 26 25 25 23 21 20 23 33 38 38 37 37 36 34 35 35 36
26 28 28 25 24 24 26 24 24 25 26 27 29 31 33 33 33 33 32 30 30 27 26 26 26 36 41 41 39 40 37 36 35
25 30 26 24 24 25 25 24 24 24 26 27 27 28 28 29 33 36 37 37 36 35 33 33 32 31 31 36 42 46 46 44 42
25 24 22 20 19 21 21 21 22 23 23 23 24 26 28 29 31 32 34 38 41 42 41 40 40 38 37 37 36 37 42 43 43
19 21 19 21 21 22 23 23 23 23 24 22 20 18 18 20 21 23 28 34 38 40 44 47 48 45 44 43 42 41 39 41 46
18 20 20 21 22 23 23 23 22 20 21 22 23 23 23 22 21 22 24 27 30 33 39 45 48 51 52 49 48 45 42 41 41

GFSFLT1_700_spd_090.txt.gz
Wind_Speed
35 46 37 40 37 31 29 26 19 12 7 7 19 21 18 17 13 14 14 12 12 12 7 9 6 5 6 4 4 6 8 9 16
28 40 42 42 41 38 33 29 22 13 9 6 13 20 22 19 16 17 16 13 14 12 11 9 8 5 4 4 5 6 7 7 8
27 35 43 45 35 37 35 31 25 18 15 10 8 17 21 21 19 18 18 18 14 14 11 9 11 8 5 4 4 5 5 4 5
29 29 37 46 39 34 40 37 32 29 27 18 14 14 19 21 19 18 19 20 18 16 12 9 10 8 8 6 5 6 5 6 5
27 22 23 26 45 43 35 36 37 31 27 26 24 22 21 19 18 18 17 17 15 13 10 10 10 11 9 9 6 7 6 6 6
22 20 19 20 22 36 28 32 27 25 34 34 31 25 23 21 21 20 18 16 14 13 12 12 13 12 10 10 11 12 10 10 7
27 22 17 17 23 32 30 19 26 21 29 32 24 28 27 25 25 23 20 19 18 17 14 13 13 13 12 11 12 11 10 12 11
23 25 22 20 22 21 20 20 24 16 14 8 31 22 27 28 26 26 25 25 23 20 19 17 16 15 14 13 13 12 12 11 11
19 20 19 17 17 21 18 16 15 18 12 14 20 20 28 36 31 27 27 28 26 26 22 21 20 19 17 15 14 13 13 13 13
20 20 19 17 17 17 16 14 17 17 19 16 20 24 19 30 31 31 36 31 28 26 24 25 24 23 22 20 19 17 17 16 17
20 20 19 18 16 15 15 14 15 17 14 11 11 21 11 14 12 30 24 23 31 24 24 25 25 24 25 24 23 22 21 22 22
18 20 20 18 16 14 13 14 13 13 14 8 10 19 12 10 6 9 6 10 18 20 18 22 24 25 25 25 26 26 25 26 26
18 16 16 16 15 14 14 13 12 11 11 12 13 12 12 14 18 14 20 23 25 26 29 24 24 31 31 30 31 29 29 27 28
10 10 13 14 15 15 14 13 14 13 12 12 12 13 15 14 13 11 15 16 17 15 16 23 29 31 32 32 33 31 31 29 29
11 13 15 16 16 15 15 15 16 17 18 18 19 20 20 20 21 21 23 25 26 22 21 20 19 19 19 24 28 29 34 34 33
17 14 16 19 20 19 19 20 21 23 24 26 27 27 27 28 29 30 30 30 30 32 32 29 27 26 27 25 22 23 29 34 36
22 19 20 21 22 24 25 25 23 23 24 26 28 29 29 29 29 29 29 29 31 32 33 34 34 34 34 33 30 30 31 29 30
24 22 21 20 20 20 22 21 21 21 22 23 25 26 27 27 27 27 27 28 29 30 32 31 30 32 35 38 38 39 39 38 36
28 25 23 25 22 21 19 19 20 20 21 22 22 23 24 25 26 26 25 25 26 26 26 29 31 33 34 34 36 36 39 42 44
25 24 22 21 20 20 18 18 19 19 19 19 20 21 21 23 24 24 23 22 20 21 23 22 23 25 27 27 28 29 29 31 34

GFSFLT1_700_spd_096.txt.gz
Wind_Speed
29 44 41 37 33 30 27 21 15 10 7 5 4 8 10 9 8 6 12 11 9 7 5 5 5 3 3 1 3 5 6 8 13
25 40 41 37 33 33 35 30 20 15 11 8 6 6 10 11 10 8 11 13 11 8 7 6 7 4 3 2 4 3 3 4 7
25 34 41 41 33 25 26 29 26 23 20 14 12 10 13 16 15 12 13 15 13 12 8 9 5 7 6 6 6 5 4 3 4
20 23 30 32 33 33 34 26 32 29 29 24 20 15 15 19 19 17 15 16 16 12 10 10 9 9 11 9 8 7 6 5 5
20 22 22 27 33 34 34 24 31 36 31 29 26 22 18 19 22 22 20 18 18 16 15 13 12 12 11 11 10 10 9 7 8
17 21 20 20 25 29 32 31 35 31 37 31 27 24 21 20 23 24 22 20 18 17 17 17 17 16 14 13 12 12 10 9 9
23 19 22 21 20 21 24 22 10 27 33 28 33 23 23 24 24 24 23 21 19 18 17 17 18 17 17 16 16 16 15 13 13
22 22 22 20 18 15 15 19 22 13 14 14 21 25 19 33 28 25 24 22 22 21 19 18 18 17 17 17 17 16 16 15 14
19 18 22 21 21 16 16 18 25 21 13 16 18 23 27 32 30 27 24 25 24 23 23 22 21 20 20 19 18 16 17 16 15
19 16 17 25 21 18 15 15 19 21 19 19 18 6 16 25 31 28 23 26 27 28 28 27 26 24 24 23 20 21 20 19 18
18 16 15 22 24 21 18 17 17 18 18 19 17 11 10 15 14 29 24 25 30 38 33 29 29 28 25 24 24 24 24 23 23
19 18 16 18 20 19 16 16 16 14 19 18 17 15 12 17 15 23 23 27 24 29 39 32 27 32 29 27 28 24 22 24 25
13 14 17 18 18 19 20 20 17 16 17 17 14 9 11 13 13 10 8 13 14 10 34 43 48 34 34 31 27 25 29 28 27
14 12 10 14 18 17 16 15 15 15 15 15 14 11 11 13 15 13 10 10 11 7 7 9 13 19 33 27 26 25 27 28 27
18 14 13 13 11 11 10 11 12 12 12 13 13 13 12 13 14 14 14 18 19 19 15 16 15 15 18 19 22 25 29 30 30
17 13 11 9 8 6 7 8 10 11 13 15 15 15 16 17 17 17 17 17 18 19 19 20 21 21 22 24 28 28 27 24 24
12 12 9 6 3 3 6 10 14 17 18 20 21 21 22 23 23 24 25 26 26 27 28 27 28 29 29 31 32 31 33 34 37
12 7 6 7 8 10 13 14 16 18 21 25 28 28 28 28 28 28 28 29 30 31 31 31 31 32 32 31 32 32 32 33 34
10 10 12 15 18 19 22 22 23 24 24 24 24 25 26 27 28 29 28 28 28 28 28 28 29 29 29 28 28 29 30 29 28
14 18 21 24 25 26 26 25 25 25 26 25 24 24 24 25 25 25 25 25 25 25 25 25 24 23 23 22 19 18 19 21 22

GFSFLT1_700_spd_099.txt.gz
Wind_Speed
29 33 36 35 30 27 26 21 16 10 10 9 11 12 13 12 10 8 10 11 9 7 4 5 5 3 3 3 4 7 6 8 10
20 19 39 34 32 28 25 24 21 15 12 12 11 11 13 15 13 11 11 14 13 10 7 7 7 6 4 2 2 3 4 5 7
21 17 23 37 34 31 30 30 27 25 19 14 12 11 11 14 17 17 16 16 16 14 10 9 9 8 7 4 4 4 4 4 5
18 17 20 27 36 35 33 36 38 30 27 24 19 17 16 15 19 20 20 19 19 16 15 13 12 9 9 7 6 6 7 7 6
19 14 15 17 28 34 35 29 34 36 33 32 28 24 21 18 18 23 23 21 21 20 16 14 14 13 10 11 10 9 9 9 8
20 17 17 17 19 25 29 28 27 27 38 37 33 30 28 24 20 22 24 23 22 21 19 18 17 17 14 13 12 13 12 11 10
21 18 18 18 18 19 20 24 30 23 34 40 38 34 32 28 23 21 23 24 23 22 21 20 19 20 18 16 17 16 14 14 14
22 21 20 21 21 17 18 20 20 19 13 34 29 32 32 34 26 22 22 23 24 23 21 18 18 18 18 18 18 18 17 17 15
18 20 20 21 21 20 17 16 19 21 17 12 20 21 16 27 25 22 28 23 24 23 21 20 20 19 19 19 20 18 17 17 15
18 17 16 20 21 21 18 18 19 23 20 15 14 13 12 17 29 30 29 25 23 23 20 22 23 23 23 22 22 20 18 18 18
20 19 19 20 23 19 17 16 18 25 27 18 18 18 13 7 14 24 25 21 21 21 22 26 27 28 28 25 24 24 21 21 23
21 21 20 19 16 20 21 19 18 22 26 23 20 18 15 13 14 15 20 30 28 26 30 29 30 35 30 29 26 23 22 22 22
22 21 19 14 16 19 17 19 21 22 24 22 20 18 16 10 14 15 16 20 25 27 24 31 39 35 28 25 26 28 27 23 27
15 13 13 15 18 21 23 22 24 22 20 22 21 18 14 15 14 14 12 10 8 11 4 5 2 18 29 40 47 48 38 35 37
14 16 18 19 19 20 22 24 23 21 21 21 20 20 16 14 16 17 17 17 16 14 13 12 14 14 15 12 12 22 25 31 22
21 20 22 22 20 18 17 16 15 15 14 13 13 13 14 15 16 16 16 16 16 17 18 17 17 17 17 16 16 20 20 20 27
21 22 22 19 18 16 14 12 12 12 13 14 14 15 14 15 17 17 18 19 20 21 21 21 22 22 22 23 25 27 26 26 27
16 17 17 16 13 11 9 8 8 9 11 13 16 19 19 21 22 23 24 25 26 26 28 28 28 29 29 29 28 29 29 30 30
20 14 11 9 9 8 11 12 12 12 14 16 18 19 20 20 23 26 28 29 29 29 31 30 29 29 29 28 28 28 28 27 27
11 11 11 12 14 15 21 20 18 18 19 20 21 22 23 23 24 25 26 26 27 28 28 27 27 27 26 25 23 22 21 21 21

GFSFLT1_700_spd_102.txt.gz
Wind_Speed
33 37 37 30 30 28 27 22 16 13 13 15 17 18 17 17 16 13 11 12 11 9 7 8 7 6 6 5 7 7 6 6 9
34 32 39 38 33 33 29 26 20 14 13 15 18 19 20 18 17 15 15 16 13 10 8 9 9 7 6 5 3 4 4 5 7
27 30 27 40 38 34 32 28 25 21 17 16 16 17 20 20 18 18 16 16 16 14 10 9 10 9 8 6 4 5 4 4 5
20 19 26 28 41 37 32 32 28 26 24 23 20 19 19 20 19 19 19 18 18 18 15 12 11 10 10 8 6 5 5 5 5
26 21 20 22 37 35 35 33 34 31 30 29 25 23 21 20 17 20 21 20 19 20 17 15 14 14 11 10 9 9 8 8 7
28 24 23 25 29 35 36 37 35 31 38 39 32 29 24 22 20 17 21 22 21 21 18 18 16 15 15 13 11 11 9 10 8
26 24 23 23 25 27 28 32 33 31 22 30 35 32 32 28 27 22 20 23 25 23 22 20 19 17 18 17 15 14 14 11 11
26 28 26 25 23 25 23 24 26 28 24 28 37 38 39 35 32 27 25 23 25 25 24 22 20 19 19 19 18 18 15 14 14
22 26 24 23 24 24 23 22 22 22 17 19 22 42 44 42 37 37 29 23 23 24 24 23 19 18 20 19 19 17 16 15 14
19 22 22 22 22 23 22 21 20 22 22 17 15 20 30 27 33 25 33 34 26 23 23 22 20 20 22 20 20 19 17 17 17
17 18 18 21 21 22 20 22 22 21 25 19 17 14 12 13 11 20 33 35 37 27 22 21 19 19 21 22 23 23 22 21 21
20 19 20 19 19 20 21 23 23 24 26 25 24 21 18 19 12 10 15 22 27 23 23 22 25 26 27 27 27 26 26 25 23
27 24 22 21 20 20 23 22 20 18 20 30 26 25 20 19 16 16 16 16 20 27 25 26 27 30 35 37 33 30 27 26 25
26 23 20 17 17 18 18 25 22 23 23 29 29 26 21 18 14 12 14 13 12 16 27 26 15 10 13 16 28 28 26 28 27
17 18 16 14 17 18 21 21 25 22 23 25 24 25 21 17 19 17 15 13 13 13 17 18 14 13 10 8 9 14 17 19 27
14 13 21 24 23 22 22 25 29 30 23 24 23 22 21 20 19 19 19 19 17 19 20 19 19 17 15 14 14 15 16 16 18
23 24 23 21 21 24 27 23 22 19 19 19 18 18 20 20 20 20 20 20 20 20 20 19 19 20 19 20 21 22 23 24 24
30 27 26 24 21 17 16 15 15 15 15 15 16 17 17 19 20 21 21 21 21 21 22 23 24 25 25 26 27 28 28 28 28
24 27 21 19 18 17 15 13 11 11 11 12 14 16 17 19 21 24 25 25 26 27 27 28 28 28 27 28 28 29 28 27 27
21 22 17 12 12 10 10 11 10 10 11 12 13 15 17 19 20 22 23 23 24 25 27 27 27 28 28 28 27 28 26 24 23

GFSFLT1_700_spd_105.txt.gz
Wind_Speed
32 37 31 33 23 24 27 22 23 18 15 17 19 18 18 18 16 14 15 13 15 2 5 6 3 5 5 5 7 6 6 7 8
31 39 40 37 31 26 38 21 18 21 17 16 18 19 20 19 18 17 17 16 14 12 12 8 7 6 6 5 3 4 6 7 7
32 30 44 32 29 33 24 26 22 18 17 15 18 21 21 21 21 20 19 18 12 22 10 8 14 7 6 5 4 5 4 5 4
28 31 37 46 38 36 31 28 25 22 19 16 16 19 20 22 23 22 21 18 20 18 10 9 9 9 8 8 7 5 5 5 7
24 22 23 30 41 31 28 32 27 25 26 18 17 16 19 19 21 21 20 19 17 18 15 14 11 13 11 10 10 8 8 8 8
19 23 29 32 29 31 33 37 40 30 29 26 26 23 23 21 21 18 18 21 20 19 18 18 15 14 13 12 11 9 9 10 9
18 25 29 28 27 31 39 42 33 32 36 29 32 36 33 28 23 21 20 19 21 23 20 19 17 17 16 16 14 14 12 12 11
23 29 30 28 26 27 37 42 38 38 36 37 34 30 41 36 30 27 25 23 22 22 23 21 20 19 19 18 17 19 15 14 14
15 22 25 25 26 24 30 36 35 34 33 31 29 29 26 38 35 32 29 28 24 23 24 24 23 21 20 20 21 14 15 16 16
14 20 27 26 25 23 25 27 28 28 25 25 25 23 22 28 38 40 40 35 32 31 28 21 23 22 21 19 18 17 15 16 17
17 20 24 28 26 25 26 24 24 22 22 22 23 22 18 18 27 31 34 36 38 38 28 19 21 23 21 19 18 18 18 18 19
15 18 22 24 21 20 23 25 24 22 20 21 23 21 15 12 12 11 15 22 24 31 35 32 28 22 20 20 20 22 22 21 21
18 20 24 23 22 22 25 27 27 27 26 24 27 24 22 18 16 16 12 10 16 24 34 33 31 29 21 20 27 32 31 27 24
21 22 25 25 23 23 22 24 24 23 22 26 26 28 27 24 19 17 17 17 15 13 18 25 24 23 24 17 15 20 29 30 30
15 17 22 22 21 18 19 20 24 25 24 22 23 30 26 26 23 19 13 14 15 16 15 24 23 21 18 14 10 5 5 10 12
14 17 21 21 19 15 21 23 21 24 27 29 24 29 28 28 24 20 18 17 14 13 13 17 20 19 17 16 14 12 11 11 11
17 17 16 20 23 22 21 22 27 26 27 29 31 27 26 26 24 22 21 21 19 20 19 20 21 20 20 19 18 18 18 18 19
23 23 25 26 23 24 27 29 28 26 26 30 28 25 24 22 23 24 22 21 21 19 19 20 22 23 23 23 25 24 26 26 26
24 26 27 23 20 18 17 19 16 19 20 21 19 17 18 19 20 20 22 22 22 23 24 25 26 27 27 28 28 28 27 28 27
11 17 19 12 9 11 10 11 11 11 12 12 12 15 13 15 18 21 23 25 26 27 27 28 29 29 29 28 29 28 27 27 26

GFSFLT1_700_spd_108.txt.gz
Wind_Speed
46 41 31 34 27 33 27 23 27 22 18 21 20 19 17 16 16 13 14 17 11 11 14 7 8 5 5 5 7 6 6 6 8
43 40 37 32 32 38 37 33 26 25 18 20 21 22 20 19 17 17 13 12 11 13 21 11 8 7 4 4 4 5 7 7 6
30 35 36 31 35 31 31 25 27 25 27 18 19 23 21 21 19 19 15 14 13 15 5 7 8 6 6 5 4 3 3 4 6
22 20 35 37 39 33 35 27 29 28 21 21 17 19 18 20 20 20 16 14 15 13 13 10 8 7 5 6 5 3 2 4 5
23 16 23 27 41 43 31 30 31 27 27 19 15 16 15 16 17 18 18 15 17 14 14 11 7 8 7 8 6 6 5 6 6
21 25 24 22 40 40 36 35 25 34 24 19 16 14 14 16 13 14 15 15 16 15 13 14 15 14 12 12 10 8 8 6 7
23 13 22 27 39 34 38 33 29 30 20 16 22 20 15 15 18 15 17 13 12 16 16 15 16 16 15 14 12 11 11 8 8
20 17 15 27 31 32 28 25 19 15 19 22 26 25 23 20 26 31 23 19 21 18 15 14 17 18 17 16 17 14 11 12 11
19 14 17 22 26 25 24 25 27 28 29 33 32 31 33 33 28 26 32 28 22 20 21 19 19 20 21 20 19 15 13 12 12
20 17 21 21 20 19 19 18 27 34 38 36 33 32 32 30 27 21 34 30 28 25 25 26 24 22 24 21 18 16 15 14 13
10 14 20 23 24 21 20 18 20 29 33 30 29 28 28 26 24 23 26 34 35 32 29 30 34 27 21 19 18 15 15 16 17
9 9 11 14 17 19 17 18 20 22 22 21 22 22 21 19 16 10 10 19 33 36 32 30 35 28 30 27 19 15 17 19 19
11 6 11 15 15 13 14 16 20 22 22 23 22 19 19 18 13 9 9 9 11 20 24 22 20 22 26 26 32 24 26 27 26
14 14 16 17 18 17 19 23 20 22 24 26 26 24 23 23 21 18 14 16 17 13 12 15 21 25 22 22 18 19 20 23 28
17 13 13 19 22 24 25 25 23 24 25 26 28 29 25 28 27 25 21 17 15 15 14 16 14 19 16 18 22 18 12 9 10
13 13 12 13 17 20 21 22 22 22 22 23 21 22 24 26 29 26 26 20 14 16 18 17 17 21 19 18 18 14 12 9 8
13 14 15 18 19 20 16 19 19 19 20 22 22 25 26 27 29 29 28 23 24 21 18 18 18 21 20 20 21 17 16 15 15
15 17 16 16 19 21 22 22 20 22 30 25 26 30 28 27 30 27 26 25 22 20 20 20 20 22 21 21 21 19 20 20 21
17 18 21 21 23 21 20 23 25 25 23 22 24 27 24 26 27 27 25 24 24 25 24 25 26 25 23 24 24 24 25 26 26
11 6 11 13 15 13 13 13 19 16 15 12 13 20 22 25 24 25 22 20 22 23 24 25 26 26 27 28 29 29 29 29 29

GFSFLT1_700_spd_111.txt.gz
Wind_Speed
44 49 40 36 33 30 28 23 19 12 6 15 18 19 19 16 13 12 12 12 12 8 6 6 10 10 8 7 8 6 7 9 10
51 43 42 42 38 31 31 28 21 22 10 15 19 18 17 16 15 17 14 7 10 9 8 17 10 10 9 7 7 8 9 8 8
37 44 38 34 33 31 29 23 30 30 15 15 18 20 21 19 18 17 14 10 7 9 5 9 7 11 8 7 5 5 6 5 4
17 41 45 32 37 35 31 32 31 26 19 17 20 19 20 22 21 20 18 13 13 14 8 7 7 9 5 5 5 4 4 4 3
24 19 32 43 37 39 33 33 39 28 24 18 17 19 18 22 23 23 20 17 15 13 10 10 8 6 6 9 7 7 6 5 4
25 15 20 41 43 33 37 36 33 33 28 26 23 14 14 16 18 18 16 17 18 15 12 12 13 12 10 10 9 8 8 7 4
15 15 17 33 38 34 36 39 31 35 35 27 23 23 14 12 13 12 11 11 13 16 14 13 14 14 14 14 15 12 10 8 7
15 23 16 25 28 30 33 40 32 34 29 38 27 28 24 12 13 17 14 14 17 17 13 13 16 15 16 16 15 13 11 10 11
25 23 19 19 25 30 26 33 34 26 22 25 23 27 27 24 18 21 24 25 24 24 21 15 13 15 20 18 15 14 14 13 13
5 19 15 16 18 27 26 24 23 24 28 21 21 19 26 23 24 28 29 25 23 25 30 20 19 17 17 19 21 18 16 15 14
10 9 10 14 12 16 23 23 20 20 27 28 26 24 23 26 27 29 29 28 26 32 25 21 19 19 22 23 22 18 16 16 16
14 12 11 15 16 19 18 18 16 16 19 26 28 28 27 28 28 25 23 24 22 28 31 29 29 26 27 22 26 29 28 21 15
11 1 8 12 15 11 15 16 14 15 17 19 22 24 27 26 21 18 12 7 5 11 22 31 34 29 23 25 21 23 27 26 25
11 15 12 17 15 11 13 14 14 14 15 17 22 21 19 18 17 17 17 13 11 12 14 14 17 19 17 17 16 21 26 26 27
15 21 21 17 17 18 18 19 18 18 18 19 20 20 20 22 22 21 21 21 16 15 15 13 11 14 15 16 14 18 19 17 17
16 16 18 18 16 20 21 21 21 21 22 23 25 28 28 31 29 26 24 26 23 20 17 18 16 17 16 17 12 20 15 17 15
16 18 21 17 16 17 19 20 21 20 19 21 20 20 19 19 22 25 23 24 24 23 19 18 18 16 16 18 17 17 18 18 17
14 14 15 14 15 16 19 16 13 16 20 18 17 24 23 25 27 28 22 21 23 19 22 21 20 18 15 16 19 21 22 22 21
5 10 13 16 14 16 16 19 21 21 20 19 19 28 24 25 25 30 31 24 24 23 23 24 25 24 22 22 24 25 25 26 26
3 3 5 8 14 19 19 21 19 17 19 19 22 25 24 21 25 30 29 27 25 26 24 28 29 27 26 26 27 27 27 28 28

GFSFLT1_700_spd_117.txt.gz
Wind_Speed
43 42 39 36 32 24 19 15 14 12 9 10 13 13 14 13 13 12 8 10 10 13 8 7 7 9 11 10 11 13 13 15 15
45 44 44 42 37 29 24 21 16 15 8 9 12 14 16 14 13 11 9 10 10 8 7 7 5 10 11 11 11 13 11 11 12
47 48 46 45 40 32 27 19 19 20 15 9 10 13 15 16 15 13 12 12 8 9 10 10 10 16 15 11 11 13 14 12 12
21 52 46 42 40 35 28 24 25 19 19 15 11 11 16 16 14 14 14 13 12 11 11 10 9 11 14 13 11 9 11 13 13
18 29 41 41 40 38 33 29 29 24 22 21 16 15 15 16 17 17 18 15 15 14 14 14 12 10 12 12 12 12 12 12 12
26 20 28 43 51 46 41 38 32 25 25 25 21 19 19 20 19 17 17 18 18 18 17 15 13 13 11 14 15 13 14 14 13
9 12 13 12 27 48 40 34 31 30 27 28 24 22 20 18 18 19 17 19 20 20 19 19 17 16 18 16 15 15 15 16 16
10 14 7 9 16 30 42 38 35 32 29 27 27 25 25 22 23 20 21 20 19 20 17 19 24 23 20 21 19 18 20 18 16
9 13 16 17 16 19 34 38 37 37 30 31 31 27 26 28 29 30 26 26 24 20 19 11 24 24 24 23 22 20 19 18 18
7 4 3 13 21 19 23 29 36 37 38 34 35 33 28 22 31 34 30 25 27 23 20 28 15 25 23 23 21 21 21 19 18
13 14 16 15 21 21 18 17 22 31 36 34 30 37 33 25 30 35 39 30 24 25 29 20 22 22 31 29 26 23 22 22 21
2 3 2 3 23 25 18 16 23 29 35 37 36 29 24 24 28 32 43 35 27 28 25 26 25 23 23 29 30 29 27 24 20
1 3 5 6 10 13 18 18 15 21 22 25 27 29 30 27 26 22 21 24 27 19 22 23 21 20 18 22 25 24 28 24 24
7 8 8 8 10 10 10 13 13 16 13 18 33 20 34 36 33 31 30 28 29 24 18 13 9 13 19 19 22 26 27 27 24
12 14 16 15 14 15 12 11 11 11 9 3 8 12 9 15 20 30 23 13 11 17 14 11 12 14 14 16 17 20 19 17 16
22 21 20 17 16 17 15 14 14 17 16 13 12 14 12 7 10 9 12 9 11 16 17 18 17 16 14 13 16 18 16 17 23
19 20 20 21 19 17 14 15 14 17 16 19 15 11 10 11 11 14 16 12 12 15 16 14 12 15 16 15 19 18 18 19 23
14 19 19 14 12 8 9 10 8 9 15 13 10 12 14 17 18 19 21 23 16 18 15 17 16 19 19 17 18 19 19 23 25
5 6 8 9 7 9 6 5 7 6 8 7 7 9 8 10 14 12 13 13 17 18 18 16 15 16 21 25 24 19 17 20 23
5 7 6 8 10 10 10 9 11 9 8 8 8 11 9 18 17 19 16 18 20 25 25 24 19 24 26 21 22 22 25 20 23

GFSFLT1_700_spd_120.txt.gz
Wind_Speed
31 31 25 25 21 19 18 15 12 10 7 11 14 15 14 13 13 12 10 10 9 10 8 8 8 12 13 13 12 13 13 14 14
38 38 32 25 24 25 22 18 11 12 8 9 12 14 16 15 13 14 11 9 9 6 10 12 11 11 12 12 13 12 10 11 13
32 39 41 33 29 26 25 20 16 12 14 9 10 14 16 16 14 13 13 13 10 10 13 11 13 12 12 13 13 12 12 12 12
25 35 41 40 34 28 26 23 19 17 19 14 11 12 14 17 17 17 16 14 15 13 12 13 13 14 14 16 14 13 13 14 15
21 34 36 37 36 33 30 28 24 19 19 16 16 13 12 14 16 18 17 16 16 16 15 13 15 10 10 15 16 15 13 12 12
3 8 20 31 32 34 33 31 28 22 21 20 18 20 17 15 18 20 19 20 21 20 19 17 17 17 16 14 17 17 14 13 13
9 5 8 13 25 32 34 34 32 27 24 24 19 25 22 22 20 18 18 19 23 23 22 22 22 21 19 19 19 18 17 16 16
11 12 11 11 15 26 36 40 39 32 30 29 26 26 26 24 20 19 17 18 22 25 25 24 24 24 23 22 22 20 20 20 19
9 10 12 14 9 8 22 33 41 39 35 33 32 28 28 30 29 26 27 23 20 23 25 24 25 23 23 24 24 24 24 22 22
7 6 5 6 5 9 16 21 31 37 39 36 36 35 32 33 38 31 32 28 31 25 25 26 24 18 18 27 27 26 27 24 21
2 7 10 12 7 10 17 12 18 29 35 40 39 39 37 37 41 41 30 32 32 31 28 31 30 27 24 24 30 28 28 28 24
1 2 4 7 9 8 9 17 24 15 15 20 26 33 38 37 39 46 27 30 33 30 30 33 34 29 28 26 25 36 34 35 27
4 6 3 2 6 6 6 8 18 14 14 11 13 22 23 22 43 27 29 30 33 32 35 32 27 25 26 24 28 29 42 35 36
8 7 8 8 7 7 11 10 15 16 15 15 11 16 15 20 20 24 23 23 22 24 30 32 24 23 17 17 17 13 9 24 24
13 14 16 17 18 17 14 14 15 14 11 8 4 8 4 4 10 15 24 19 28 16 20 26 14 11 13 13 11 15 19 21 20
25 24 22 24 24 24 21 18 18 17 16 15 15 11 7 3 4 4 4 14 36 26 23 15 13 14 18 15 12 10 11 14 18
21 27 26 23 20 20 15 15 11 14 13 12 12 11 6 9 10 10 7 4 8 13 9 11 13 13 12 13 13 12 16 15 17
16 20 22 22 17 12 9 8 6 7 12 12 16 14 11 10 8 8 8 8 10 13 15 17 18 19 17 15 17 19 19 18 18
11 13 13 9 6 8 5 7 7 9 8 11 8 12 14 12 15 16 16 15 16 15 17 20 22 20 19 16 16 19 22 23 18
4 2 5 5 5 5 6 8 10 9 8 8 10 11 10 11 14 14 12 18 16 14 14 18 22 20 18 21 23 22 26 26 22

GFSFLT1_700_spd_123.txt.gz
Wind_Speed
29 25 31 31 26 22 18 12 12 11 9 13 18 17 16 16 15 14 13 11 9 8 12 10 12 12 13 14 12 12 14 14 13
36 26 29 31 28 26 22 17 12 10 8 8 12 16 18 17 16 15 13 11 11 12 11 14 12 10 13 15 14 13 13 13 13
20 30 32 30 31 28 23 19 14 10 10 8 11 13 16 19 19 17 18 17 13 12 13 10 10 10 9 12 15 15 13 14 12
29 20 23 34 31 29 25 22 20 16 12 11 8 10 15 17 19 19 18 17 17 15 13 12 14 14 15 16 19 17 14 15 14
26 27 28 28 34 33 30 26 23 19 15 15 12 11 12 14 17 19 19 18 18 18 18 16 15 16 13 12 14 17 16 16 15
11 13 26 33 37 40 34 29 26 23 20 16 14 14 13 11 11 16 18 18 19 20 20 20 20 18 17 17 16 17 18 16 16
9 6 7 23 27 28 32 33 33 29 25 19 20 21 19 18 17 16 14 18 21 23 25 25 24 23 21 19 19 17 18 18 18
12 6 10 16 15 21 26 28 31 35 32 31 25 26 28 24 22 21 21 21 20 21 24 27 27 26 25 23 23 21 21 22 22
10 9 12 14 20 11 19 17 30 35 36 37 32 32 34 32 26 29 26 26 28 25 24 25 27 27 27 26 25 24 24 25 24
8 9 12 16 19 18 16 16 23 29 34 39 35 33 38 38 28 33 37 40 34 33 30 27 26 27 26 26 26 23 28 30 28
15 12 9 9 12 19 19 11 11 14 19 28 39 39 37 38 37 37 36 43 40 37 43 31 29 27 26 26 28 27 30 34 31
8 7 7 8 11 14 13 13 10 11 21 14 29 37 42 41 46 44 41 42 43 41 38 33 32 32 33 32 34 34 29 33 34
5 7 5 4 5 6 6 8 10 16 8 8 10 13 4 15 14 22 36 37 42 35 34 31 30 29 31 32 35 29 27 31 33
7 7 9 7 8 9 9 9 9 11 13 11 14 14 9 11 14 16 18 16 23 23 31 31 31 32 32 32 24 20 21 25 25
12 12 13 13 15 13 11 10 10 12 14 16 15 14 12 6 6 4 10 10 16 15 13 19 20 22 29 19 11 8 15 10 12
19 19 17 17 18 19 16 16 15 17 14 16 14 11 9 6 6 6 7 8 7 4 9 20 20 17 21 13 7 10 7 9 16
25 26 26 25 23 22 17 14 14 17 15 11 17 16 15 14 13 12 6 6 4 6 5 4 8 8 11 20 12 13 15 23 19
17 21 24 22 19 19 16 11 9 9 12 13 17 18 16 17 11 10 11 12 9 11 11 10 12 15 16 15 20 17 18 17 19
15 15 18 17 9 8 7 7 5 6 6 9 10 12 12 15 16 17 15 15 12 14 17 17 16 16 15 19 22 19 18 14 22
9 10 13 11 9 8 10 9 8 7 6 6 11 12 12 11 14 12 11 9 13 18 17 16 18 16 17 17 22 16 22 25 27

GFSFLT1_700_spd_126.txt.gz
Wind_Speed
33 33 29 28 26 25 20 18 15 13 13 15 17 17 16 16 17 15 15 13 11 11 12 11 8 9 11 11 10 11 12 13 13
33 33 27 30 28 25 22 18 14 12 11 12 16 18 18 19 17 19 17 15 13 13 12 13 11 11 10 11 12 12 12 14 14
31 30 31 29 29 29 25 20 16 14 13 11 12 16 18 18 19 18 18 16 14 14 14 13 11 14 14 10 11 13 14 14 14
30 30 28 31 32 30 27 23 19 16 16 13 9 11 15 18 19 19 18 17 18 17 15 15 13 14 13 15 15 16 17 15 15
16 13 23 31 30 30 30 26 23 20 16 12 11 9 7 12 16 18 19 18 17 18 17 17 16 14 15 15 15 16 16 17 17
13 25 27 23 27 33 33 30 28 26 22 18 15 15 11 9 11 12 14 16 17 18 19 19 19 19 19 18 19 16 14 18 19
19 21 25 29 36 36 39 36 34 32 28 24 20 18 16 14 13 12 12 13 16 18 19 21 23 23 23 23 21 20 19 18 18
17 14 15 18 29 32 30 38 36 33 32 31 27 24 24 22 21 21 20 18 18 19 22 22 22 24 26 27 25 23 22 21 21
9 8 8 10 22 27 26 30 37 31 33 35 35 33 31 30 30 30 29 25 24 25 26 26 24 23 25 26 27 27 25 24 24
3 2 12 11 12 12 10 7 11 17 23 34 36 39 39 33 32 32 30 35 33 35 31 32 32 31 25 25 26 26 27 26 28
8 6 16 13 16 18 18 21 17 24 29 29 36 39 42 36 36 38 40 35 34 39 38 39 38 46 30 29 28 27 27 30 24
17 20 17 13 15 18 23 24 23 23 14 20 23 28 29 36 38 40 40 35 34 38 47 39 43 33 36 42 36 32 32 32 27
16 17 15 10 10 13 15 17 21 18 19 18 17 19 22 22 22 26 29 25 34 38 36 38 34 33 37 38 40 39 39 37 35
9 10 10 7 7 7 9 11 14 16 17 14 12 11 11 11 13 17 19 25 27 19 24 26 23 22 26 32 41 39 37 34 32
11 10 9 9 9 9 8 8 9 11 12 16 18 17 17 17 14 12 12 13 13 14 15 15 11 14 28 22 29 30 30 26 27
17 13 13 13 13 11 10 10 11 12 11 11 13 14 13 13 11 10 8 8 11 9 8 8 19 19 18 21 23 20 16 12 17
25 20 20 19 18 19 18 16 14 12 14 16 13 15 15 15 17 16 13 10 9 9 9 7 3 5 6 13 14 13 12 13 16
16 16 18 20 19 19 18 14 12 12 13 14 13 12 15 16 16 16 15 16 15 15 12 10 8 10 11 11 18 16 14 15 22
18 17 16 16 15 13 9 9 7 8 10 13 14 16 15 13 12 12 13 14 14 14 10 12 16 15 15 16 16 18 20 20 19
16 16 14 13 10 10 9 9 9 8 8 7 9 11 12 11 13 14 13 11 12 12 14 16 14 15 14 13 17 20 20 19 22

GFSFLT1_700_spd_129.txt.gz
Wind_Speed
29 30 26 25 24 22 21 21 21 17 12 13 15 16 16 17 17 16 13 11 10 12 7 10 13 8 10 9 11 11 11 11 11
28 29 29 26 25 24 22 22 22 16 12 13 16 16 17 17 16 17 15 16 15 14 13 11 13 10 11 10 10 11 11 11 11
27 38 29 25 26 24 22 21 20 16 13 11 14 17 17 16 17 17 17 18 14 14 10 15 15 10 12 12 11 11 12 12 12
31 30 37 31 26 24 23 21 20 18 14 13 11 12 16 17 16 16 16 16 16 14 13 12 12 12 12 11 12 14 13 15 17
27 32 25 32 23 24 23 24 23 21 18 16 12 10 12 14 16 18 18 17 17 17 16 15 14 13 12 13 14 14 14 16 16
15 21 17 25 30 33 27 26 28 26 21 17 13 13 11 9 10 14 15 16 17 17 17 16 16 16 15 16 16 17 17 16 14
9 10 12 26 20 32 34 30 29 28 26 24 21 18 17 14 11 11 11 10 12 15 17 18 19 19 19 19 20 19 20 20 19
12 13 14 26 26 29 36 38 37 36 32 30 27 24 21 19 18 18 17 16 15 15 17 19 21 22 22 22 23 24 24 22 21
11 12 13 12 16 27 39 43 42 40 37 33 33 30 29 28 26 26 22 24 24 23 22 24 24 22 22 22 22 26 26 23 25
9 12 11 5 9 18 24 30 37 42 40 34 33 31 33 33 33 30 28 31 32 28 29 31 31 29 29 29 29 24 26 28 28
12 12 10 5 11 4 5 2 16 25 33 34 24 23 30 35 39 39 33 33 34 36 34 33 34 36 37 35 38 37 36 31 30
16 12 14 7 7 16 17 14 12 16 21 22 28 27 24 31 36 38 37 39 39 36 34 35 35 37 39 38 35 38 38 36 34
19 16 17 13 17 14 16 14 16 17 16 18 14 20 21 20 22 24 26 28 33 37 39 36 37 37 33 35 39 31 37 39 38
13 13 15 11 8 8 7 9 11 16 19 21 21 20 13 15 16 16 17 20 23 24 23 24 25 21 24 24 26 28 26 35 36
7 7 8 10 9 7 7 8 8 10 13 15 18 15 12 13 15 16 16 15 18 19 16 18 16 14 16 18 22 21 26 25 30
16 10 4 10 10 8 8 8 9 9 10 11 13 14 15 16 15 16 16 14 11 8 12 17 17 16 17 22 19 19 19 19 18
13 20 19 16 16 12 10 10 11 11 11 10 14 14 15 14 14 15 18 15 15 14 12 13 13 7 6 9 8 9 11 10 11
13 14 25 21 16 14 13 13 14 12 11 13 14 14 14 17 17 19 21 21 20 16 16 17 14 10 10 12 9 13 15 15 16
14 15 15 20 16 13 13 12 10 10 11 14 14 13 14 16 18 17 17 16 17 17 16 13 12 14 16 17 14 18 14 14 16
14 13 12 11 11 11 9 10 7 9 9 9 10 12 11 12 12 13 13 14 15 16 15 12 13 13 15 13 13 12 15 17 16